GFSMW_sfc_thetae_024.txt.gz
Theta_e
298 298 298 297 298 298 299 299 299 301 303 305 307 308 310 313 314 315 316 317 315 312 306 302 301 298 296 295 294 293 292 292 291 290 289 289 290 290 291 292 291 291 292
296 297 296 296 295 296 296 297 299 299 301 302 305 306 307 307 311 313 313 315 314 311 306 302 299 297 294 294 294 292 291 291 291 289 287 284 286 288 290 290 291 289 290
294 294 294 294 294 294 294 296 297 298 299 300 302 303 304 301 301 304 306 309 311 310 308 303 299 297 295 294 293 293 292 289 290 292 290 285 284 285 288 288 289 288 288
294 294 293 293 293 293 294 295 295 296 298 298 299 298 298 297 298 300 302 304 306 306 306 304 300 297 295 293 293 294 293 290 290 288 292 289 289 285 282 286 287 287 288
292 292 292 293 294 293 293 293 294 294 295 294 295 295 295 296 297 297 296 298 300 302 302 302 300 298 296 293 292 291 291 292 290 290 287 287 287 288 284 281 283 285 286
291 292 292 292 291 292 291 291 291 292 294 293 293 292 291 292 292 293 293 294 296 297 298 299 299 298 296 293 292 291 291 290 290 290 288 287 286 285 285 284 282 282 284
289 289 289 290 290 289 290 290 289 289 290 291 291 291 291 290 291 291 291 291 292 294 295 295 295 296 296 294 292 291 290 290 290 289 290 288 288 288 287 286 283 282 283
290 289 289 288 289 289 289 289 289 288 288 288 289 290 290 290 290 290 290 290 290 291 292 293 293 294 295 294 292 290 289 289 290 288 288 289 289 289 288 287 283 281 280
289 289 288 287 288 288 287 287 286 286 286 287 288 288 288 287 287 289 289 289 289 291 290 290 290 291 292 292 291 288 288 288 288 289 288 288 288 288 289 288 286 285 278
287 288 287 286 286 286 287 286 286 285 285 286 286 287 286 287 286 286 286 287 288 289 288 288 288 288 289 289 288 287 287 287 286 288 287 287 287 288 288 288 287 285 284
285 286 287 286 285 285 285 284 285 284 283 285 286 285 284 284 284 283 284 285 285 287 287 287 286 286 286 287 286 286 286 286 286 286 285 286 286 288 287 286 286 286 285
285 284 286 285 284 284 283 284 284 283 284 284 283 284 284 283 282 282 282 283 284 284 285 286 285 286 286 286 285 285 286 285 285 285 285 285 287 286 284 284 286 288 284
284 285 285 284 284 284 284 283 283 283 284 283 282 282 281 281 281 279 280 281 282 282 282 283 284 283 284 284 285 285 285 285 285 286 285 286 284 285 287 284 285 286 285
283 283 281 282 283 283 282 282 283 283 283 283 281 280 280 280 280 280 279 279 280 280 280 281 282 283 283 283 284 284 284 284 285 285 285 286 285 285 285 285 285 285 284
283 281 281 281 281 282 282 282 282 282 281 281 280 280 280 280 279 279 278 278 278 280 280 279 280 280 282 283 283 283 282 283 284 284 284 285 285 287 287 285 286 285 285
281 282 282 282 282 282 282 283 281 281 281 279 278 280 279 279 278 277 277 277 277 277 277 278 278 278 280 284 285 285 283 284 283 283 284 284 284 286 289 290 291 288 285
281 281 282 281 282 282 283 281 281 281 277 276 277 277 277 277 278 278 277 277 276 276 276 276 277 277 278 283 284 285 283 283 283 283 284 284 284 284 284 287 290 290 291
280 280 281 282 282 282 281 281 280 278 278 277 277 277 277 277 277 276 276 276 275 275 275 275 275 275 277 281 283 284 282 282 282 283 283 283 284 284 283 283 283 284 286
281 281 281 282 281 280 279 278 277 277 277 277 277 276 275 275 276 275 275 275 275 274 274 274 273 273 274 279 280 281 279 280 280 282 283 283 283 286 287 284 282 283 283
281 281 281 281 279 278 278 276 275 274 274 275 275 275 274 273 272 273 273 274 273 273 274 273 273 273 272 276 278 278 276 276 278 280 281 283 284 286 288 285 284 281 282
279 280 278 278 277 277 275 273 273 272 272 272 271 270 269 268 268 269 269 269 269 270 269 269 270 270 271 271 276 277 275 276 277 278 279 281 285 287 288 288 284 283 283
278 277 276 276 275 274 272 270 269 271 269 267 266 265 264 264 265 264 264 265 265 265 265 266 266 268 269 272 274 276 277 278 276 277 279 280 284 285 287 287 288 288 286
276 275 271 271 272 269 268 267 267 267 266 263 261 261 262 262 262 261 261 261 262 262 262 263 263 264 267 268 272 274 275 276 275 278 281 283 284 285 285 287 288 286 285
271 270 267 265 265 266 267 264 265 264 262 260 260 261 260 260 261 262 262 261 261 260 261 260 260 261 263 264 266 267 268 271 274 278 279 281 282 283 283 283 285 286 284
270 267 265 265 265 265 264 262 263 261 260 260 260 260 260 260 260 261 261 261 263 263 262 263 264 264 264 266 269 270 268 269 271 273 275 276 275 276 278 280 282 283 283
267 265 263 263 262 261 261 261 259 258 259 259 260 259 259 259 260 260 260 265 267 269 270 270 269 268 271 272 272 273 273 274 275 272 271 272 274 274 276 278 280 279 280

GFSMW_sfc_thetae_027.txt.gz
Theta_e
295 295 295 294 295 294 295 296 297 298 300 301 305 306 308 311 312 316 319 319 318 315 309 306 305 300 298 296 293 291 291 290 289 288 287 288 289 289 289 291 291 291 291
292 293 293 293 293 293 293 294 295 296 298 300 300 303 302 302 306 310 311 315 315 314 309 304 302 298 295 293 292 291 289 290 289 287 285 283 285 287 289 289 290 288 289
291 291 292 291 292 291 292 293 294 294 295 297 299 299 300 299 298 301 304 308 311 310 309 305 302 299 298 295 293 291 291 289 289 288 288 283 283 283 286 287 288 288 287
291 291 290 290 290 290 291 292 293 293 294 294 294 293 293 293 294 295 296 299 303 304 307 305 303 299 297 295 292 292 291 289 287 287 290 288 287 283 282 285 286 286 287
289 289 289 290 290 289 288 289 290 291 292 292 292 291 291 292 292 293 293 294 297 299 300 301 302 300 298 295 293 292 291 289 289 288 286 286 286 286 283 281 282 284 285
288 288 289 289 288 288 287 288 288 289 290 291 290 290 289 289 289 289 290 291 292 294 296 297 297 297 298 295 294 293 292 292 290 288 287 287 287 285 285 282 281 281 283
286 287 286 286 287 286 286 287 286 286 288 288 288 288 288 288 288 288 288 288 288 289 290 291 292 293 294 294 292 291 291 290 291 291 290 290 288 287 287 285 281 281 282
287 286 286 286 286 285 285 285 285 284 286 286 286 286 286 286 286 286 287 287 287 288 289 288 288 289 291 292 291 289 288 288 288 290 290 291 290 288 287 286 283 280 280
286 286 286 286 286 285 285 284 283 283 284 284 285 284 285 285 285 285 285 285 286 287 287 287 287 287 287 288 289 287 286 286 287 288 288 289 291 289 288 286 285 287 282
287 287 285 286 285 285 284 284 284 283 283 284 284 284 284 284 283 283 283 283 284 285 285 285 285 285 286 286 286 285 285 285 285 286 286 287 289 288 287 289 286 284 288
285 286 284 284 284 284 284 285 285 284 283 283 283 283 283 283 282 282 282 281 282 283 283 283 283 283 283 284 284 284 284 284 285 285 285 285 286 288 288 285 286 286 283
283 284 285 283 283 283 283 282 282 283 283 283 283 284 284 283 282 280 281 280 280 281 282 282 281 281 281 282 282 282 283 283 283 284 284 285 286 284 286 286 287 287 284
281 282 283 283 282 282 282 281 282 282 283 281 281 281 281 280 280 280 281 281 279 278 280 280 280 280 281 281 281 281 282 283 283 284 284 284 284 284 285 286 286 287 287
281 281 280 281 281 281 280 280 280 281 282 280 280 279 278 279 279 280 279 279 279 278 278 280 279 280 279 280 280 281 281 281 282 283 284 284 284 284 285 285 285 285 285
281 280 280 280 280 280 281 281 280 281 280 280 279 279 279 279 278 278 278 278 278 278 278 278 278 278 279 279 279 280 281 281 281 282 282 283 284 286 287 285 285 285 284
280 280 280 280 280 281 281 281 281 280 280 279 278 279 278 279 279 279 279 278 278 277 277 276 276 276 277 281 282 282 280 281 281 281 282 282 282 284 288 289 290 289 285
280 279 280 280 279 280 281 280 280 279 276 275 276 277 278 278 278 278 278 277 277 277 276 276 275 275 276 280 281 281 280 279 280 280 281 282 283 282 282 285 288 289 291
280 279 279 279 280 281 280 279 278 277 277 275 274 274 276 275 275 275 275 275 275 275 275 275 275 275 275 279 279 279 278 277 278 279 280 280 281 282 282 282 282 283 284
280 279 280 281 279 278 277 277 276 276 275 275 274 274 272 271 271 270 270 271 271 271 272 273 272 272 273 277 278 277 275 274 275 276 277 278 279 283 285 282 281 281 282
280 280 280 279 277 276 276 274 274 272 272 273 272 271 270 267 266 267 266 267 267 268 269 268 269 269 269 273 274 274 272 271 272 273 275 278 279 282 283 281 281 280 281
279 278 277 277 275 274 273 271 271 269 270 269 268 267 266 265 264 264 264 264 263 264 263 264 265 265 267 267 272 273 271 271 271 272 273 275 279 281 282 284 282 282 283
277 277 275 275 274 272 270 269 268 269 267 265 264 263 262 262 263 261 261 261 261 260 261 261 262 264 265 268 269 271 272 273 269 270 272 274 278 280 281 282 284 287 287
277 274 270 270 271 268 267 265 266 265 264 259 258 259 261 261 261 260 260 260 260 260 260 261 261 261 264 264 268 270 271 271 269 269 271 274 275 278 279 281 285 284 283
271 269 267 265 264 265 266 263 263 263 255 254 258 260 260 260 260 261 261 260 259 259 260 260 260 261 263 264 265 266 265 268 268 269 268 270 272 275 276 277 281 282 282
269 267 265 264 264 264 262 259 262 257 257 258 260 260 260 259 259 260 260 260 262 263 262 264 265 265 265 266 271 272 271 270 271 269 267 267 269 270 271 276 277 277 279
268 266 264 263 261 258 258 257 256 254 255 258 260 259 260 259 260 259 259 265 267 268 270 271 270 268 271 273 273 274 275 275 275 271 269 268 268 268 269 271 274 275 276

GFSMW_sfc_thetae_030.txt.gz
Theta_e
292 292 292 292 292 292 293 293 294 294 298 298 301 304 305 306 311 314 317 319 319 315 313 311 309 305 304 302 297 292 291 289 288 287 287 287 288 288 288 290 292 291 292
290 291 290 290 290 290 291 292 292 293 294 296 297 299 299 298 300 304 307 309 314 315 311 309 307 305 300 298 295 294 289 289 288 287 284 283 286 287 288 288 290 289 289
288 288 288 287 287 287 288 291 292 292 292 293 295 295 296 295 295 296 297 301 304 307 308 307 304 302 300 298 296 294 293 291 288 287 287 281 282 283 285 286 287 288 287
287 288 287 287 287 286 287 289 290 291 291 291 291 290 290 289 290 291 292 294 296 296 299 302 303 301 299 297 296 295 293 292 290 287 289 287 285 283 282 284 285 286 287
286 286 286 287 287 286 285 286 288 288 289 289 290 289 288 289 289 289 289 290 291 291 291 292 295 298 299 297 295 294 292 292 292 289 286 285 285 285 283 282 282 284 285
286 286 287 286 285 284 284 285 286 286 287 287 286 286 286 286 285 286 286 287 288 289 289 289 289 291 292 294 295 294 293 292 292 291 290 289 286 285 284 282 282 282 284
284 284 284 284 284 283 283 284 284 284 285 285 285 284 284 284 283 284 284 284 285 286 287 287 287 287 288 289 290 291 292 292 291 292 292 291 290 289 287 285 282 281 282
285 284 285 284 284 283 282 282 283 283 284 284 283 283 283 283 283 283 283 283 283 284 285 285 285 286 287 287 287 287 287 289 290 290 290 291 290 290 290 289 284 282 280
285 284 284 285 284 284 283 282 281 282 282 283 283 283 282 281 282 282 282 283 283 284 284 284 284 284 284 284 285 284 284 284 285 286 286 287 289 288 288 290 289 288 284
285 284 284 283 284 284 283 283 282 281 282 282 283 282 282 282 281 280 279 279 281 282 282 282 283 283 283 283 283 283 284 283 283 285 285 286 287 287 286 287 289 288 288
285 284 283 284 284 283 283 283 282 281 281 281 282 282 281 281 281 280 280 279 279 279 279 280 280 281 281 281 281 281 282 281 282 283 283 284 285 286 285 284 286 287 288
283 283 281 281 281 280 280 280 281 281 281 281 281 281 281 280 279 279 279 280 279 280 278 279 279 279 279 279 280 280 281 281 280 281 282 282 285 283 284 285 284 284 285
280 282 281 280 280 280 280 280 280 281 281 280 279 279 279 278 278 279 279 279 279 279 278 278 278 279 278 278 278 278 279 280 280 280 281 281 282 283 284 284 284 285 286
280 280 280 281 280 280 279 279 279 280 280 280 279 278 278 278 278 278 278 278 278 278 278 277 278 278 278 278 278 278 278 279 280 281 281 281 281 281 282 283 284 284 284
280 279 279 279 279 279 279 279 279 279 279 279 279 278 279 278 278 277 277 277 277 278 278 277 277 277 277 277 277 278 278 278 279 280 280 281 282 284 284 283 282 283 283
281 280 280 279 279 279 279 280 279 280 279 278 276 278 277 277 277 277 277 277 276 276 276 276 276 275 277 280 281 280 277 278 277 277 279 279 281 282 285 286 288 287 283
279 279 279 279 279 279 280 279 279 278 275 274 273 274 274 274 274 274 274 273 272 273 272 273 273 273 274 278 279 280 278 277 276 276 277 278 279 280 280 283 285 285 287
279 279 278 278 279 279 279 278 278 276 275 273 271 271 272 271 271 270 269 269 270 269 269 270 270 270 272 275 276 276 275 274 275 275 275 275 275 277 278 279 279 281 281
279 279 279 278 278 277 277 276 275 275 273 273 272 271 269 267 268 266 266 267 266 266 266 267 267 266 267 271 272 273 271 271 271 273 273 273 273 276 278 276 276 277 280
279 279 279 279 276 275 275 273 272 271 270 271 270 269 268 263 264 265 264 264 264 265 265 265 265 264 264 268 270 271 269 268 269 270 272 274 274 276 278 275 275 274 277
279 279 278 277 275 274 272 271 270 268 269 268 267 265 265 263 263 262 263 262 262 263 261 262 262 263 264 264 269 271 269 268 268 268 269 271 274 275 276 278 276 276 279
278 277 276 274 273 271 270 268 267 268 265 264 263 262 260 261 262 260 260 260 260 259 259 260 261 263 264 266 268 271 272 272 269 268 269 269 272 274 275 274 276 278 279
278 276 273 271 271 268 267 266 266 265 263 258 256 256 258 260 261 259 259 259 259 259 259 260 260 261 263 264 269 271 272 272 269 269 270 274 275 275 275 274 274 273 272
273 269 268 266 266 266 267 265 263 262 254 251 256 258 258 259 259 260 261 259 258 259 259 259 260 262 264 266 268 268 268 270 270 271 269 270 273 274 274 272 272 272 272
270 268 266 266 265 265 264 261 261 257 255 255 258 258 258 257 259 260 260 260 262 263 263 265 265 265 265 267 271 272 271 271 273 273 273 271 267 265 265 267 269 270 271
267 265 264 264 264 262 262 260 259 254 253 256 258 259 259 259 260 259 259 264 266 268 270 271 270 268 271 273 274 274 275 275 276 273 271 270 270 269 269 268 268 269 270

GFSMW_sfc_thetae_033.txt.gz
Theta_e
290 290 289 289 289 290 291 291 291 292 295 296 298 300 297 298 299 302 304 308 311 314 314 313 312 309 308 306 302 296 295 293 291 288 287 287 287 287 288 288 289 292 294
287 288 287 287 287 287 289 290 290 291 292 293 294 296 295 295 295 297 298 299 301 303 307 306 305 305 303 301 298 296 294 293 292 290 287 285 286 286 287 287 288 289 291
285 285 285 285 285 285 286 288 289 290 291 292 293 293 293 291 291 291 292 293 294 294 296 300 302 301 301 300 298 296 295 294 292 290 291 286 282 282 285 285 286 287 288
285 286 285 284 284 284 285 287 287 287 289 290 290 289 287 286 287 288 289 290 290 290 290 291 293 297 299 298 297 296 294 293 292 290 290 288 288 285 284 284 285 285 287
284 284 284 284 283 283 283 284 286 286 285 286 286 286 284 285 285 285 285 286 287 287 287 288 289 289 290 291 294 294 293 293 292 291 290 288 288 287 285 285 283 284 285
284 284 284 284 282 282 282 283 284 284 284 284 284 283 282 282 282 282 282 283 284 285 285 285 286 286 287 287 288 289 290 292 292 292 291 289 288 287 287 285 285 284 285
283 283 283 282 281 281 281 283 283 282 282 282 282 282 281 281 281 281 281 281 282 282 283 283 283 283 284 285 285 286 287 288 288 290 292 292 291 290 289 287 288 285 284
284 283 283 282 281 281 280 281 282 282 282 281 281 281 281 280 280 280 280 281 281 282 282 282 282 282 283 283 283 283 283 285 285 286 287 289 290 291 290 289 287 286 288
283 283 283 282 282 281 280 280 280 281 281 281 280 280 280 279 279 279 279 279 280 282 282 282 282 282 281 282 282 281 281 282 284 284 284 285 287 288 288 290 290 287 284
284 283 283 283 282 282 281 281 280 280 280 281 281 280 280 280 279 279 279 279 278 279 279 279 279 279 280 280 280 280 280 280 281 282 283 284 285 285 285 285 287 287 286
284 283 283 283 282 282 281 280 280 279 279 280 280 279 279 279 279 278 278 278 279 278 278 279 278 278 278 278 278 278 279 279 279 280 280 281 283 284 285 284 284 285 284
284 283 281 281 281 280 279 279 280 280 280 280 279 279 279 279 278 278 278 278 278 278 278 278 278 278 278 277 277 277 277 277 277 278 279 279 282 281 283 283 283 284 284
282 283 280 280 279 279 279 279 279 280 280 279 279 279 279 278 278 278 279 278 278 278 278 278 277 277 277 277 277 277 276 276 277 277 278 279 279 279 280 281 282 283 284
281 281 279 279 279 279 279 278 279 279 280 279 278 278 278 278 278 278 278 277 277 277 277 277 277 277 277 277 277 277 276 276 277 278 278 278 279 279 279 280 280 281 282
279 279 280 280 279 279 278 278 278 278 278 278 278 278 278 278 277 276 275 276 276 276 275 275 274 275 275 276 276 277 277 277 277 277 277 278 278 281 281 280 280 280 280
281 280 280 279 280 280 279 279 278 278 278 278 276 277 275 275 274 273 273 273 272 272 272 272 272 272 273 276 278 277 276 276 276 276 277 277 277 278 280 282 283 283 280
282 280 279 279 279 279 280 278 278 278 275 274 271 271 272 272 271 271 270 270 269 270 269 269 269 269 269 273 275 275 274 273 272 273 274 275 277 276 276 278 279 280 281
279 279 278 278 279 278 278 278 277 275 274 272 270 270 270 268 269 268 267 267 267 267 267 267 267 267 268 272 272 273 271 271 271 271 272 272 272 274 274 274 273 275 276
278 279 279 278 278 278 277 276 274 274 273 272 271 270 268 265 266 263 265 265 265 265 264 266 265 264 264 269 271 271 269 269 269 270 271 271 271 273 275 273 271 272 274
279 279 279 278 277 276 276 274 272 270 270 271 270 268 267 262 262 264 263 264 262 264 264 264 263 263 262 267 269 270 268 267 268 269 270 272 272 274 275 273 272 270 272
279 278 278 278 277 275 273 271 270 269 269 268 267 265 265 261 261 261 262 261 261 262 260 261 261 262 263 263 269 271 269 268 267 268 269 270 273 274 275 275 272 271 273
278 279 277 276 274 272 271 269 268 268 266 265 263 261 258 259 261 255 258 257 258 258 258 259 260 262 263 266 268 271 272 273 269 268 269 270 273 274 275 275 276 278 277
279 278 275 273 271 269 268 267 267 266 264 261 258 254 257 259 259 255 258 258 257 257 258 259 259 261 263 264 269 271 272 273 271 271 272 275 276 277 276 276 276 274 271
275 272 271 270 267 266 267 264 264 263 256 258 257 258 256 257 257 260 260 257 257 258 259 259 260 262 264 267 268 268 268 271 272 273 271 272 275 276 276 273 273 272 271
272 271 271 270 266 265 264 261 262 260 259 257 259 259 257 255 257 258 259 260 261 262 263 265 265 265 265 267 272 273 271 271 273 273 272 270 270 271 271 268 268 268 268
269 268 267 266 264 262 261 259 257 257 256 258 259 258 258 257 259 258 258 264 267 268 270 271 269 268 271 272 273 274 274 274 274 268 263 263 264 265 266 267 268 270 270

GFSMW_sfc_thetae_036.txt.gz
Theta_e
287 287 287 286 287 288 289 290 291 292 294 294 296 296 293 294 295 295 296 296 297 301 304 305 305 307 305 303 301 299 298 297 293 293 293 291 291 288 288 288 288 289 291
285 285 285 285 285 285 287 288 289 290 292 292 292 292 292 291 291 293 293 293 293 294 296 299 300 301 301 301 300 298 296 295 293 292 289 289 289 287 287 287 288 287 288
283 283 283 283 283 283 283 285 286 288 289 291 291 291 290 289 288 288 288 288 288 289 290 291 293 295 297 297 297 297 296 294 294 291 292 289 286 285 286 286 286 286 287
284 283 282 282 282 282 283 284 284 285 286 288 287 286 285 283 284 285 285 285 285 285 286 287 288 289 290 289 292 295 294 293 292 292 291 289 288 287 286 286 287 285 286
283 282 282 282 282 282 281 282 283 283 283 284 284 283 282 282 282 282 283 283 284 284 284 284 284 284 285 286 287 288 289 290 290 291 290 289 288 288 286 286 287 287 286
283 283 282 282 281 281 281 281 281 281 282 282 282 281 281 280 280 280 280 281 282 282 282 283 282 283 283 283 284 284 286 286 288 288 289 289 289 288 287 286 288 286 287
282 282 281 280 280 280 280 281 281 280 281 280 280 280 279 279 279 279 279 279 280 280 280 281 281 281 282 282 282 281 282 283 284 285 286 288 289 291 290 288 287 287 286
282 282 281 280 279 280 280 280 280 280 280 280 279 279 279 279 279 279 278 278 279 279 280 279 280 280 280 281 280 280 280 281 282 282 283 285 286 288 288 287 287 285 286
282 283 282 281 280 279 279 280 280 280 279 279 279 279 278 278 278 277 278 277 278 280 278 278 278 278 279 279 279 278 278 278 279 280 282 282 284 286 286 286 286 285 283
283 283 282 282 281 280 279 279 279 279 279 279 279 279 278 278 278 278 278 278 278 278 278 278 278 277 278 277 277 277 278 277 277 278 278 279 281 282 284 284 285 284 283
283 283 282 282 281 280 279 279 278 278 279 279 279 278 278 278 278 278 278 278 278 278 278 278 277 277 277 277 276 276 276 276 276 277 277 278 279 279 280 281 283 282 281
284 283 282 281 280 279 279 278 278 278 279 279 279 279 279 278 278 277 278 278 277 278 277 277 277 277 276 276 276 275 275 275 275 276 276 276 279 278 278 279 279 280 281
284 283 281 280 279 279 279 278 279 279 279 279 278 278 278 278 277 277 277 277 277 276 276 276 276 275 276 275 276 276 275 275 275 276 276 276 277 277 277 277 278 278 280
283 282 280 279 279 279 278 278 278 279 279 279 278 278 278 277 277 277 276 276 275 274 274 273 273 273 274 274 275 276 275 275 276 277 277 277 276 276 276 277 277 278 278
282 280 280 280 279 278 278 278 277 278 278 278 277 277 278 277 276 274 274 273 273 272 272 272 271 272 272 273 274 274 274 274 274 275 276 276 277 279 279 278 277 277 276
283 281 281 281 280 280 279 279 277 277 278 277 277 277 275 274 273 272 272 271 271 270 270 270 269 269 270 273 275 275 273 272 272 271 272 273 273 275 278 279 280 280 277
283 283 280 280 280 280 281 278 278 277 275 274 272 271 271 271 270 270 269 269 268 268 268 268 268 267 268 272 274 274 272 271 271 270 271 271 272 272 272 274 276 277 278
281 281 280 279 279 279 278 278 278 276 275 273 270 270 270 268 268 267 267 267 267 266 266 266 266 266 267 271 272 273 271 270 270 270 270 270 270 271 272 272 272 273 274
279 279 280 278 277 278 277 277 275 275 273 272 271 269 268 265 266 263 264 264 264 264 263 265 264 263 263 269 271 271 270 269 269 269 270 270 270 272 274 272 271 272 273
278 278 279 278 277 277 277 275 273 272 271 272 271 269 267 262 262 264 262 263 261 264 264 264 263 263 262 267 270 271 269 267 268 269 270 272 272 274 275 273 271 269 270
278 278 277 278 278 276 274 273 271 271 270 269 267 266 265 262 261 260 261 259 258 262 259 260 261 261 262 263 269 272 270 269 269 269 270 271 274 275 276 276 273 272 274
278 279 277 276 277 274 274 272 271 269 267 266 265 264 261 261 262 255 256 255 255 255 256 257 259 262 263 266 269 272 273 274 270 270 271 271 274 276 277 277 278 279 279
278 277 276 276 274 271 272 271 269 266 264 262 260 259 261 261 261 255 257 257 255 254 257 259 259 261 264 265 270 272 273 274 272 272 274 276 277 277 276 276 277 275 273
276 273 271 271 271 268 269 267 266 264 260 256 260 260 258 260 259 260 260 256 255 256 258 258 259 261 266 267 267 268 271 273 272 273 273 272 272 272 272 271 272 271 271
273 271 272 273 271 267 265 263 263 261 258 257 260 260 260 259 259 260 259 259 260 260 259 261 265 265 264 267 273 273 272 272 272 270 265 262 262 263 264 265 266 267 268
270 270 270 268 266 265 263 260 260 259 258 259 260 260 260 260 259 259 258 264 267 269 271 271 270 268 271 272 273 274 274 273 271 261 257 258 259 260 261 261 262 264 264

GFSMW_sfc_thetae_042.txt.gz
Theta_e
293 294 294 296 298 299 301 301 301 303 306 308 306 303 300 298 297 297 298 300 301 302 304 305 306 307 306 306 306 308 307 306 304 306 309 309 306 304 304 305 305 303 301
292 292 293 294 295 296 298 299 300 301 302 303 302 300 296 294 294 294 293 294 295 296 297 299 299 300 301 300 301 303 305 305 304 301 304 304 306 303 305 306 303 302 303
292 292 292 292 294 293 294 295 297 298 299 299 297 296 295 294 292 291 291 291 292 292 292 292 293 293 295 294 296 298 299 299 301 301 299 298 298 298 304 304 302 303 302
292 291 291 291 291 291 292 293 294 294 295 296 296 296 293 289 289 289 290 290 291 290 291 291 291 291 291 291 291 291 293 294 293 299 298 300 297 294 294 300 301 300 300
292 290 289 289 288 290 291 291 291 291 292 292 293 291 289 289 289 289 289 289 289 289 289 289 289 289 289 289 289 290 290 290 289 289 290 292 294 297 292 290 293 294 295
290 289 289 288 287 288 289 289 289 288 289 290 290 290 289 288 288 288 288 288 288 288 288 288 288 288 288 288 288 288 288 288 288 288 289 288 287 286 286 285 286 288 290
289 288 287 287 286 287 287 287 287 286 288 288 288 288 288 289 288 288 288 287 287 286 286 287 286 286 286 286 287 286 286 286 286 286 286 287 287 287 287 286 285 285 288
289 288 288 287 286 286 286 286 286 285 287 287 287 288 288 288 287 287 287 286 286 285 286 285 285 285 284 284 285 285 285 285 285 284 285 285 285 286 285 284 283 282 284
289 288 288 287 287 287 287 287 286 286 286 287 287 287 287 287 286 286 286 286 286 284 285 284 284 284 284 283 284 284 283 284 284 284 284 284 285 285 285 285 284 282 279
289 289 288 287 287 287 287 286 286 286 286 286 287 286 286 286 286 286 285 285 285 284 283 283 283 283 283 283 283 283 283 282 283 282 282 282 283 283 284 284 284 284 281
289 289 289 288 287 287 287 286 286 286 286 286 286 286 286 286 286 285 285 284 284 283 282 282 281 281 281 281 281 281 281 280 281 282 281 281 282 281 282 282 282 282 282
291 290 290 289 286 285 286 286 286 286 286 286 286 286 285 285 285 285 284 284 282 282 281 280 280 279 279 279 279 279 279 279 279 279 279 279 279 279 280 281 280 280 281
291 290 290 289 288 286 285 285 286 286 286 285 285 285 285 285 285 284 283 282 281 280 279 278 278 277 277 277 278 278 278 278 278 278 277 277 277 277 277 277 277 278 279
291 290 290 290 290 288 286 285 285 286 285 285 285 285 285 285 284 283 282 280 279 278 277 277 276 276 276 276 276 277 278 278 277 277 277 276 276 275 275 275 275 276 277
290 291 291 291 290 288 287 286 285 285 285 284 284 285 285 285 283 281 279 278 277 276 276 275 275 275 274 275 276 277 277 276 276 276 276 275 275 275 275 275 275 274 274
291 291 291 291 289 288 287 286 285 284 285 284 284 285 284 282 280 278 277 276 275 275 274 273 273 273 273 273 276 276 276 275 274 274 274 274 274 274 275 275 276 276 274
291 290 290 290 289 288 288 286 285 285 284 283 283 283 282 280 279 277 275 275 274 274 273 272 272 272 272 272 275 275 275 275 274 273 273 273 273 273 273 274 275 275 276
289 289 289 289 289 288 287 287 286 284 282 283 282 281 280 279 277 275 274 274 273 272 272 272 271 271 271 272 273 275 275 274 273 273 273 273 273 273 273 273 274 274 275
290 290 291 290 288 287 287 285 282 282 282 281 281 280 279 277 275 273 273 273 272 271 271 271 270 269 269 271 273 273 274 273 273 273 274 273 273 275 277 276 274 275 275
287 286 287 286 286 285 283 282 282 281 281 282 281 280 278 275 273 273 272 272 271 271 270 270 269 268 267 269 271 273 274 273 273 274 274 276 275 277 278 276 276 274 276
285 284 284 283 283 281 281 281 281 280 282 282 279 277 275 273 273 272 271 270 269 269 267 267 268 267 268 268 271 273 273 273 273 274 274 275 276 277 278 277 275 274 276
282 283 282 281 282 281 280 280 279 282 279 278 276 274 272 272 270 268 268 267 267 266 266 266 267 269 268 269 271 273 274 275 274 273 274 275 276 275 275 274 274 275 274
281 281 281 280 280 280 280 280 281 277 275 274 272 270 269 269 268 267 267 267 267 267 268 268 268 269 269 270 271 272 274 275 274 275 275 274 272 272 271 271 271 270 269
280 280 278 278 279 279 278 280 276 274 272 272 270 268 267 267 266 268 268 268 268 268 268 268 268 268 269 270 271 272 273 274 275 274 270 270 269 269 269 267 268 267 267
279 278 278 278 279 279 278 277 274 272 272 271 269 269 268 267 268 268 269 268 269 269 268 267 267 268 269 271 272 274 274 275 275 271 268 266 265 265 266 266 266 266 266
278 277 277 277 278 276 275 271 270 270 271 270 269 269 269 268 268 268 268 270 271 271 272 273 273 273 272 274 274 274 275 275 272 268 264 263 264 264 264 264 264 265 265

GFSMW_sfc_thetae_045.txt.gz
Theta_e
297 298 299 303 305 303 303 304 305 305 307 307 306 304 301 300 299 298 300 300 301 303 304 304 305 306 304 304 305 307 308 306 305 308 307 310 309 306 306 308 307 305 305
296 297 299 301 303 303 304 304 305 308 309 307 305 302 299 297 296 295 295 296 296 296 297 298 298 300 299 298 299 301 303 303 303 299 303 303 305 304 306 306 305 305 304
295 295 297 299 300 301 302 302 304 304 304 303 300 298 297 296 294 293 292 293 294 294 294 294 294 294 294 293 293 294 295 295 299 299 298 296 295 296 304 303 303 302 301
296 296 295 296 297 297 298 300 300 301 301 302 301 299 295 291 291 291 292 292 293 292 292 293 293 293 292 292 292 292 292 292 290 294 293 297 295 292 290 296 296 293 293
295 294 294 294 294 295 295 296 295 295 296 297 297 295 292 292 291 290 290 290 291 291 290 291 291 291 291 291 291 291 291 291 289 290 290 290 290 294 286 284 286 290 292
294 293 293 292 291 292 293 293 292 292 293 294 294 292 291 290 290 290 290 289 289 289 289 289 289 288 289 289 289 290 289 289 289 288 288 287 285 285 284 283 284 285 287
293 292 290 290 290 290 291 291 291 289 291 292 292 292 291 291 290 290 289 288 288 287 287 287 287 287 286 287 288 288 287 287 287 287 286 287 286 286 285 284 283 282 285
293 291 291 290 289 289 289 288 289 288 289 290 290 291 291 290 290 289 289 288 287 286 287 286 286 286 286 286 287 287 286 286 286 285 286 285 286 286 285 283 282 280 282
292 291 291 290 289 288 288 288 288 288 288 289 289 289 289 289 288 288 288 287 287 286 286 286 285 285 285 285 285 285 284 285 285 285 285 284 285 285 285 285 284 281 277
292 291 291 290 289 289 288 289 288 287 288 288 288 288 288 288 288 288 287 286 286 285 285 284 284 284 284 283 284 284 284 283 284 283 283 283 283 283 284 284 283 282 280
292 291 291 290 290 289 288 288 288 288 287 288 288 288 288 288 288 287 286 286 285 284 284 283 283 282 282 282 282 282 281 281 281 282 281 281 282 281 281 281 282 281 281
293 292 291 290 289 288 288 287 287 287 288 288 288 287 287 287 287 286 286 286 284 284 283 282 281 281 280 280 280 280 280 280 279 280 279 279 279 278 279 279 278 278 278
293 292 291 289 288 288 288 287 287 287 288 287 287 287 286 286 286 286 285 285 284 283 281 280 280 279 279 278 279 278 279 279 279 279 278 277 277 277 277 276 276 276 276
293 292 291 291 289 288 287 287 287 288 287 287 287 286 286 286 286 286 285 283 283 281 280 279 278 278 277 277 277 278 278 278 278 278 278 277 276 276 275 274 275 275 275
292 292 292 292 291 290 288 288 288 287 287 286 286 286 287 287 286 285 283 282 281 280 279 278 277 277 276 276 276 277 278 277 277 277 277 276 276 276 276 275 274 274 273
293 293 292 292 291 291 290 288 288 287 287 285 285 286 286 285 284 282 280 279 278 278 277 276 276 275 275 276 276 277 276 276 276 275 275 275 276 276 276 277 277 276 273
293 293 292 292 292 292 291 289 288 287 285 284 284 284 285 283 282 281 279 278 277 277 276 275 275 274 275 276 276 276 276 275 275 275 274 274 275 275 274 276 277 277 277
293 293 293 294 293 293 291 291 288 286 284 284 284 283 283 281 281 279 277 277 277 276 275 274 274 274 274 275 275 276 275 275 275 275 274 274 274 275 275 274 275 276 276
294 294 294 294 292 290 289 287 285 285 283 283 283 282 282 280 279 277 276 277 276 275 274 274 273 272 273 274 274 275 274 274 274 275 275 275 274 276 278 276 274 275 276
290 289 290 289 287 288 287 284 283 282 282 282 283 283 282 280 278 277 276 277 276 275 274 273 273 271 270 273 274 274 273 273 274 275 275 277 277 278 278 276 274 271 272
286 286 286 285 286 284 283 282 282 281 283 283 282 281 281 279 278 277 276 274 273 273 272 271 271 271 270 270 274 275 273 273 273 274 274 275 277 277 278 277 273 271 274
283 284 283 282 283 282 282 282 281 283 282 281 279 278 277 277 276 274 273 272 271 270 269 269 269 271 271 271 272 275 276 276 273 273 274 275 277 276 276 274 274 274 272
281 282 282 281 281 281 281 281 282 280 278 277 276 275 274 274 273 271 271 270 269 270 270 270 270 271 272 271 274 275 275 276 274 275 275 277 274 274 272 272 272 270 268
281 280 280 279 279 280 279 281 279 277 275 275 273 272 271 271 270 271 272 271 271 270 270 271 271 271 271 271 272 272 273 274 275 276 272 271 272 271 270 268 269 268 267
280 280 279 279 279 279 279 279 276 274 275 275 273 273 272 270 270 270 271 271 272 273 271 272 271 270 270 271 273 273 272 274 275 273 268 267 267 266 266 266 266 267 267
280 278 278 277 277 277 276 275 273 273 274 274 273 273 272 271 271 271 270 274 274 274 274 274 271 270 273 274 275 276 276 276 274 268 265 265 265 264 265 264 264 265 265

GFSMW_sfc_thetae_048.txt.gz
Theta_e
294 296 298 301 302 303 304 304 304 304 305 304 302 299 296 294 294 294 295 295 296 298 298 298 298 297 295 295 296 298 298 297 297 296 297 301 299 298 299 299 298 299 300
292 295 296 299 302 302 302 303 304 305 306 303 300 295 293 292 291 291 291 292 292 292 293 291 291 291 290 290 290 290 294 293 292 292 294 293 297 295 299 297 296 294 295
291 292 294 296 300 300 301 303 303 301 299 296 295 293 292 290 289 288 288 290 290 290 290 290 290 289 289 288 287 287 287 286 288 288 291 288 287 289 293 290 289 288 288
293 293 294 294 295 296 297 298 298 297 297 296 293 291 289 286 286 287 287 288 288 288 288 288 288 287 287 286 286 287 286 285 284 286 288 285 284 285 284 285 286 287 287
292 292 292 293 292 293 292 292 293 293 293 293 292 290 287 287 287 287 286 286 286 286 287 286 286 286 286 285 285 284 284 284 283 283 283 283 282 282 279 277 280 283 284
291 290 290 290 289 289 289 289 289 289 290 290 289 287 287 287 286 286 285 284 285 285 285 285 284 284 284 284 284 283 283 283 283 282 282 282 280 279 279 277 278 278 281
291 289 287 287 287 287 288 288 287 287 288 288 288 288 287 287 286 285 284 284 283 282 283 283 282 282 282 283 283 282 281 282 281 281 281 282 282 282 281 279 277 276 279
290 288 287 287 287 287 286 286 286 285 287 287 287 287 287 287 286 285 284 283 282 282 282 282 282 282 282 282 282 281 281 280 280 280 280 280 281 282 281 279 278 276 276
290 288 288 287 286 285 285 285 285 286 286 286 286 285 285 285 284 284 283 282 282 283 282 281 281 281 281 281 281 280 279 279 279 279 279 279 280 280 280 280 279 277 273
290 289 288 286 286 285 284 285 285 285 285 285 285 285 285 284 284 283 282 281 281 282 281 280 280 280 280 279 279 278 278 278 278 279 278 278 279 278 278 278 278 278 275
290 288 288 287 286 285 284 284 284 284 284 285 284 284 284 284 284 283 282 281 281 281 280 280 279 279 278 278 277 277 277 277 277 277 276 277 277 276 276 276 276 276 275
290 289 288 287 285 285 284 284 284 284 284 284 284 284 284 283 282 282 282 281 280 280 279 279 278 278 278 277 277 276 276 276 276 276 276 275 277 274 275 274 274 274 274
290 289 288 286 286 285 284 284 284 284 284 284 283 282 282 282 281 281 281 280 279 278 278 278 277 277 277 276 276 276 276 275 275 276 275 275 275 274 274 272 272 273 274
290 289 288 287 286 285 284 284 284 284 284 283 283 281 281 281 281 281 280 279 279 278 277 277 276 276 276 275 276 276 275 275 276 276 275 275 274 274 273 273 273 274 272
290 289 288 287 286 285 285 284 284 284 284 283 282 282 281 281 281 280 279 279 278 277 277 276 275 275 275 275 275 276 275 275 275 275 276 275 275 277 277 275 273 273 271
290 290 289 288 286 285 285 284 284 283 283 283 282 282 282 281 281 279 278 278 277 276 276 275 275 274 275 278 277 277 276 276 275 274 274 274 275 275 277 277 278 277 273
291 290 290 289 289 287 286 284 284 283 282 281 281 281 281 282 280 279 277 276 275 275 274 274 274 273 274 278 278 278 276 275 274 275 274 274 275 274 274 275 277 277 278
291 291 291 291 289 288 287 286 283 282 282 282 282 281 282 280 278 277 276 275 275 274 273 273 273 273 273 278 278 278 275 274 274 274 274 274 274 274 274 274 274 275 276
292 292 292 291 290 288 288 285 283 282 282 282 282 282 281 279 278 277 275 275 274 272 272 272 270 270 271 277 278 277 274 274 274 275 274 274 274 276 278 276 271 273 273
290 290 290 289 288 286 286 285 283 282 281 282 282 282 281 280 278 277 275 274 271 273 273 272 270 270 268 276 277 277 273 268 272 273 275 277 276 278 279 276 270 269 270
287 287 287 286 285 284 283 281 281 281 282 281 280 279 279 279 278 276 272 273 271 272 270 270 269 269 269 269 276 277 274 271 270 271 272 274 277 278 279 278 273 270 273
283 283 283 282 282 282 282 280 280 281 279 278 278 278 278 277 276 274 269 270 270 267 266 266 267 269 270 272 274 276 278 276 271 269 273 273 277 278 278 276 275 275 273
281 280 280 279 280 279 280 279 278 278 276 276 276 273 272 273 273 271 269 267 267 268 267 267 267 267 270 270 275 276 277 278 275 274 274 277 278 276 273 273 273 271 263
278 277 278 277 276 274 277 276 276 276 275 273 272 271 271 269 268 270 269 269 267 267 267 268 268 266 267 268 269 270 270 274 274 274 272 272 274 275 271 267 268 267 265
278 277 278 276 275 274 273 272 273 273 272 271 270 268 268 268 266 267 268 269 267 269 264 265 264 264 265 268 271 270 266 266 270 271 265 262 262 261 262 262 262 263 263
275 275 274 273 272 272 270 268 268 270 270 269 269 268 267 266 266 266 264 274 274 275 277 277 270 264 273 275 276 277 278 278 278 272 259 258 259 261 261 261 261 261 262

GFSMW_sfc_thetae_051.txt.gz
Theta_e
292 294 297 298 300 301 303 303 303 303 302 302 299 297 294 293 292 292 292 293 294 294 294 293 291 291 290 289 292 295 291 289 290 295 296 296 295 297 293 293 289 289 292
291 293 296 297 298 300 302 304 304 305 304 302 298 295 292 290 289 290 290 290 291 291 291 290 289 288 288 287 287 287 288 287 286 290 291 290 294 291 290 288 287 285 287
290 291 294 296 297 298 301 304 304 303 299 296 294 291 290 288 287 287 287 288 289 289 289 288 288 287 287 286 285 285 285 283 285 285 288 283 281 286 291 285 284 284 284
291 293 294 294 295 297 302 302 300 297 295 295 292 290 288 286 284 285 286 286 287 287 287 287 287 286 285 285 285 285 284 283 281 283 285 282 282 280 279 281 282 283 283
291 292 294 295 293 295 297 297 296 296 294 292 290 288 286 286 286 285 285 285 285 285 285 285 285 285 285 283 283 282 282 282 281 281 281 281 280 280 277 276 277 280 281
291 292 292 291 290 291 292 292 290 289 290 290 288 287 286 285 284 284 283 283 284 284 284 284 283 283 283 282 282 282 281 281 281 281 281 280 278 277 277 276 276 276 278
289 290 289 289 288 287 287 287 288 287 288 288 287 286 286 286 284 284 283 283 282 282 282 282 281 281 282 282 281 281 281 280 280 280 280 281 280 281 279 278 276 275 277
290 289 288 288 287 287 286 286 286 286 287 287 286 287 287 286 286 285 284 283 282 282 282 281 281 281 281 281 281 280 280 279 279 278 279 279 279 280 279 278 276 274 275
288 287 286 287 286 285 285 286 286 285 286 286 286 286 286 285 285 283 283 282 282 282 281 280 280 280 280 280 280 279 278 278 278 277 278 278 278 279 278 279 278 276 272
287 286 286 286 286 286 284 284 285 285 285 285 286 285 284 284 283 283 282 281 281 281 280 279 279 279 279 279 278 277 277 277 277 277 277 277 277 277 277 277 277 276 274
287 287 286 285 285 284 284 284 284 284 284 285 284 284 283 283 283 282 281 280 280 280 279 279 279 278 278 277 277 276 276 276 276 276 276 276 276 275 274 274 275 274 273
289 287 287 285 284 284 283 283 283 283 284 284 284 283 283 283 282 281 280 280 279 279 279 279 278 278 277 277 276 276 276 276 276 276 275 275 277 274 274 273 273 273 273
288 287 286 284 284 284 283 283 283 284 284 284 283 282 282 281 281 280 280 279 278 278 278 278 277 277 277 276 276 276 276 275 275 275 275 275 274 274 273 272 271 272 274
288 287 286 286 285 285 284 283 283 284 283 283 283 282 281 281 281 280 279 279 278 277 277 277 277 276 276 276 276 276 275 275 275 276 275 275 274 274 273 273 273 273 272
288 288 287 286 285 284 283 283 284 284 284 283 282 282 282 281 280 280 279 278 278 277 277 276 275 275 275 275 275 276 275 275 275 275 276 275 275 277 277 275 273 273 271
289 289 288 287 285 285 284 283 284 284 284 283 282 282 281 281 280 280 279 278 277 277 276 275 274 273 275 279 280 277 276 276 275 274 274 275 274 275 278 278 279 278 272
290 290 288 287 286 286 286 284 284 284 283 283 282 281 282 281 281 281 279 278 277 275 275 274 274 274 274 280 281 280 276 275 275 274 275 275 275 274 274 275 277 278 278
291 290 290 289 287 286 286 285 283 283 283 282 282 282 281 281 280 279 279 277 275 275 274 274 274 273 274 280 281 280 276 275 274 274 274 274 274 274 274 273 273 274 275
292 292 291 290 288 286 286 284 282 283 282 282 282 282 282 281 280 279 278 277 276 274 274 273 272 272 272 280 281 280 275 274 274 274 274 274 273 276 278 275 273 272 273
290 289 289 289 288 287 285 284 283 282 282 282 282 283 283 282 280 280 278 277 276 276 274 274 272 271 270 278 280 279 274 268 272 272 274 276 276 277 279 276 270 268 270
288 289 289 288 288 287 285 284 282 281 283 282 281 281 281 281 281 279 276 273 274 273 272 271 271 270 270 270 279 280 275 272 270 270 271 273 277 278 279 279 275 269 274
285 285 284 283 283 284 284 281 281 282 279 279 279 280 280 280 278 277 273 273 272 271 270 269 268 270 270 272 276 278 279 278 270 269 272 273 277 278 279 279 278 277 274
283 282 283 281 281 280 282 280 278 278 277 277 277 276 275 276 276 275 271 269 270 271 270 269 270 269 269 270 276 277 278 279 277 275 275 277 278 279 277 275 276 272 264
278 277 278 277 275 274 276 274 275 275 274 273 271 270 272 268 267 270 271 271 269 269 269 268 268 264 266 269 269 270 271 276 277 276 273 275 276 275 274 268 270 268 265
276 276 276 274 273 272 271 269 271 272 271 269 269 269 267 267 267 267 267 268 266 270 265 263 264 263 265 269 272 270 267 267 270 269 261 262 266 265 265 263 263 263 263
273 273 271 273 269 270 267 264 265 269 271 269 269 268 267 266 266 266 265 274 274 275 277 276 270 265 273 275 276 277 278 278 278 272 269 266 267 267 265 263 262 262 262

GFSMW_sfc_thetae_057.txt.gz
Theta_e
294 292 293 297 298 299 299 300 303 304 303 302 301 301 296 296 296 296 296 297 295 293 293 292 292 292 291 289 289 288 292 287 288 289 289 288 285 284 283 282 282 283 284
290 291 292 295 297 298 299 299 301 303 303 303 296 296 294 291 292 293 293 293 291 290 291 290 288 287 287 286 286 286 284 283 283 291 289 286 289 286 283 282 283 281 282
292 291 292 295 297 298 298 300 301 303 304 294 293 291 291 291 290 290 290 289 289 288 288 286 286 285 285 284 283 283 283 281 282 282 287 281 284 281 286 281 280 280 280
293 292 292 295 297 299 299 301 300 302 296 295 294 294 294 292 290 289 288 286 286 285 285 285 284 283 283 283 282 283 282 282 280 282 282 280 280 277 276 279 279 280 280
293 292 293 296 297 299 299 300 301 297 295 295 295 294 293 288 288 287 286 283 284 284 284 283 283 283 283 282 282 282 282 282 280 280 280 279 278 278 276 275 276 278 278
291 291 293 295 296 297 299 300 300 296 293 294 293 291 288 286 286 285 284 282 282 282 282 282 282 282 282 282 282 281 281 281 281 280 280 279 277 276 275 274 275 275 277
288 289 291 294 294 295 299 301 298 292 293 293 291 289 288 288 286 284 283 282 281 280 280 281 281 281 281 281 281 280 280 280 280 279 279 279 279 279 278 276 275 274 276
288 289 291 294 294 295 297 298 296 291 291 291 290 289 288 287 286 285 283 282 281 281 280 280 280 280 281 280 280 279 279 279 278 278 278 279 278 279 279 277 275 273 274
287 288 290 293 293 294 295 297 293 291 291 290 289 288 287 286 285 282 281 281 280 281 280 280 280 280 280 280 279 279 278 278 277 277 278 278 277 278 277 277 277 275 271
286 287 289 291 292 292 291 291 291 290 290 289 288 287 286 285 282 282 281 280 280 281 280 280 280 279 279 278 278 277 278 277 276 277 277 277 276 276 276 276 276 275 273
286 286 288 289 289 289 287 287 288 288 288 287 287 285 284 283 282 282 281 280 280 280 280 280 279 279 278 278 277 277 277 277 276 276 276 276 276 274 274 274 274 274 273
286 285 286 286 285 285 285 285 285 286 288 287 286 284 283 282 282 281 280 280 280 280 280 279 279 279 278 277 277 277 276 276 276 276 275 275 276 274 273 273 273 273 273
284 284 284 285 285 285 285 285 285 285 286 285 284 283 282 282 281 280 280 280 279 279 279 279 279 278 278 278 277 277 276 276 275 275 275 275 274 273 273 272 272 272 274
285 284 284 284 285 285 285 285 284 285 284 284 283 282 282 282 282 281 280 280 279 279 279 279 278 277 277 277 277 277 276 275 275 275 275 275 274 274 273 273 272 273 272
285 285 285 284 285 285 285 285 285 284 284 284 283 283 283 283 282 281 280 280 279 279 279 278 277 277 277 277 277 276 275 275 274 275 276 275 275 278 276 274 273 272 272
288 287 286 285 285 285 285 285 284 284 284 284 283 283 282 282 281 280 280 279 279 278 278 278 277 276 277 281 282 278 276 276 275 274 275 275 275 278 280 281 281 277 270
290 288 287 286 286 286 286 284 284 284 283 283 282 282 282 281 281 280 280 279 278 278 278 277 277 277 277 282 284 283 276 275 275 275 275 275 275 275 274 277 280 280 281
291 289 289 288 287 286 285 285 284 283 283 283 282 282 282 281 281 280 279 279 279 278 277 277 277 277 277 282 284 284 277 275 275 275 275 275 275 274 273 273 272 273 273
293 292 291 289 287 286 285 283 282 282 283 282 282 282 282 282 280 280 279 279 279 278 278 279 278 277 277 282 284 283 278 277 276 276 275 274 274 276 279 275 271 272 273
290 289 287 286 285 284 283 282 281 281 282 283 283 283 283 282 281 281 280 280 280 279 279 278 278 278 278 281 284 283 278 275 275 275 275 277 275 277 279 276 271 270 272
285 286 285 284 283 283 282 281 281 281 283 283 283 282 282 283 282 282 281 281 280 279 278 278 278 277 277 276 283 284 278 277 274 274 274 274 278 280 281 281 276 274 276
284 283 282 281 281 282 282 280 281 282 282 282 282 282 283 283 283 283 282 281 280 279 278 277 276 275 274 276 280 283 284 281 274 274 274 273 278 279 280 280 281 281 281
283 282 281 280 280 279 281 280 281 283 284 283 283 284 284 284 284 283 282 280 279 279 277 275 275 275 272 272 279 280 282 283 280 276 276 278 279 280 280 281 281 280 273
277 276 279 277 276 276 278 278 278 280 282 281 280 279 280 279 280 281 279 277 276 276 275 274 274 270 269 269 270 272 272 277 279 279 276 277 280 280 279 275 276 275 272
275 276 279 277 274 274 273 273 274 277 276 275 273 273 274 274 272 272 274 275 273 277 274 272 270 267 267 268 272 269 265 263 270 270 261 262 267 270 271 272 271 271 271
274 276 275 275 271 271 269 268 268 272 273 271 270 271 272 271 272 271 269 276 275 278 278 276 270 264 273 275 277 278 278 279 278 269 268 268 268 269 268 268 268 268 267

GFSMW_sfc_thetae_060.txt.gz
Theta_e
297 293 293 293 296 297 299 299 303 303 305 304 304 303 299 299 298 299 300 301 301 301 302 300 297 294 292 292 295 294 292 288 288 286 285 285 282 281 281 281 281 282 283
291 291 291 293 296 297 299 299 305 302 305 307 301 299 296 293 294 295 295 296 296 296 296 295 290 289 289 290 290 291 284 283 284 287 286 284 286 284 281 281 282 280 281
295 291 291 292 295 296 298 300 304 303 304 298 294 293 294 293 293 292 292 291 292 291 290 289 287 286 287 289 286 285 286 282 281 283 289 283 285 282 284 279 279 279 279
294 293 292 291 294 297 299 300 301 304 303 296 295 297 296 294 293 291 290 289 289 288 287 286 285 284 283 283 283 282 282 282 280 280 281 279 280 278 276 277 277 278 279
293 292 292 293 295 297 298 300 300 302 297 297 297 298 295 289 290 288 287 287 286 286 284 284 283 282 282 281 282 281 281 281 280 280 279 278 277 277 275 274 275 277 278
291 291 291 292 294 297 298 299 299 297 295 297 297 297 290 289 288 287 286 285 285 282 282 282 281 281 281 281 280 280 281 280 280 280 279 278 277 275 275 274 274 275 277
289 289 289 291 293 295 298 300 300 296 295 295 295 294 292 291 290 287 286 284 283 280 280 281 281 281 281 281 281 280 280 280 280 279 279 279 278 278 277 275 274 274 276
289 288 289 291 293 295 298 300 301 297 294 294 291 291 291 291 290 289 287 286 284 282 281 280 280 280 280 280 280 280 279 279 279 278 278 278 278 278 278 276 275 273 274
290 288 288 291 292 294 297 299 298 295 294 293 289 289 290 289 288 286 286 285 284 282 280 280 279 280 280 280 279 279 279 279 278 278 278 278 277 278 278 278 277 274 271
289 287 288 290 291 293 296 298 297 293 293 292 290 289 289 288 287 285 283 282 282 281 280 279 280 279 279 279 279 278 278 278 278 278 278 277 277 277 277 277 276 276 273
288 287 287 289 290 291 291 293 293 292 290 290 289 289 287 286 285 284 283 282 281 280 280 280 280 279 279 279 279 279 278 278 277 277 277 277 277 275 275 275 275 274 274
288 286 287 287 287 288 287 288 291 291 290 289 288 287 286 285 284 284 282 281 280 280 280 280 280 279 279 279 279 278 278 278 277 277 277 275 276 274 273 273 273 273 273
286 285 285 285 286 286 287 288 288 289 288 287 287 286 284 284 283 282 281 280 279 280 280 280 280 279 279 278 279 278 278 278 277 277 276 275 275 273 273 272 272 272 274
286 284 284 285 286 287 287 287 287 287 286 286 286 285 284 284 283 282 281 280 280 279 279 280 279 279 279 278 278 278 277 277 277 276 276 275 275 274 273 273 272 272 271
286 285 285 285 285 285 286 287 287 286 285 286 285 285 284 284 283 281 280 280 279 279 279 279 278 278 278 278 278 277 277 277 276 276 276 275 275 278 276 274 273 272 271
289 288 286 285 285 286 286 286 286 285 285 285 284 285 283 283 282 281 280 280 279 279 279 278 278 277 278 282 283 279 277 277 276 275 275 275 276 278 281 281 280 276 271
292 290 288 287 287 286 287 286 286 285 284 283 282 282 283 282 281 280 280 279 279 279 278 278 278 277 277 283 284 283 277 277 276 276 276 275 276 275 275 279 282 282 283
292 291 290 289 288 287 286 286 285 283 283 283 282 282 282 282 281 280 280 279 279 278 278 278 278 278 278 283 285 285 278 277 276 276 276 275 275 275 274 273 273 274 274
293 294 292 290 287 286 286 284 282 282 283 282 282 282 283 282 281 280 279 279 279 278 278 279 278 278 278 283 284 284 281 278 276 276 276 275 275 277 280 275 272 273 274
289 289 289 286 284 283 283 282 281 281 281 282 282 282 283 282 281 281 280 280 279 279 278 278 279 278 279 283 284 285 282 278 278 277 276 278 277 279 280 277 274 272 273
286 285 284 284 283 282 282 281 280 280 281 281 281 282 282 282 282 281 280 279 279 279 278 278 278 279 279 280 284 287 282 279 278 277 276 276 280 282 282 282 277 274 275
282 282 281 280 280 280 281 279 279 279 279 280 280 281 282 282 282 281 280 280 280 279 278 278 278 278 278 279 282 285 286 283 279 276 276 276 279 281 282 281 282 282 281
282 280 279 278 278 277 279 278 277 279 279 280 281 282 282 282 282 282 281 280 281 280 279 278 278 278 275 276 282 282 284 285 282 278 278 279 280 281 281 282 282 280 279
277 277 278 277 275 276 278 279 280 283 283 282 282 282 282 282 283 283 282 283 281 280 280 278 278 278 272 272 273 277 279 281 281 280 274 278 280 280 279 274 275 274 274
275 276 278 276 274 274 274 275 277 280 280 279 278 280 280 281 279 277 279 279 275 281 279 278 277 273 271 272 274 273 269 268 271 265 260 262 264 266 267 268 270 271 271
276 277 276 274 272 272 271 271 273 276 276 274 274 274 274 273 273 273 271 278 278 280 280 279 274 267 275 277 279 279 278 277 276 262 259 261 264 267 267 266 265 264 264

GFSMW_sfc_thetae_063.txt.gz
Theta_e
299 297 297 297 297 299 301 303 305 308 308 308 307 307 305 303 303 305 307 309 310 310 310 308 302 303 301 301 299 297 291 289 289 287 286 285 286 286 286 286 287 286 286
295 295 295 295 296 298 300 302 305 307 308 310 307 305 301 298 299 299 300 302 304 306 305 302 298 297 298 298 298 295 291 289 290 289 290 285 287 285 285 285 285 285 286
298 296 293 294 296 297 299 302 305 306 307 308 299 296 296 297 295 295 296 296 300 300 300 297 294 296 300 298 298 295 292 289 288 291 295 289 290 288 286 283 284 284 285
296 296 293 293 294 297 300 302 304 305 306 300 302 301 302 299 297 297 294 293 295 295 296 292 293 295 299 297 296 294 293 291 289 285 284 286 290 287 282 283 283 283 283
296 295 293 295 295 297 299 302 304 304 303 300 303 302 301 298 295 293 292 290 290 291 291 290 290 292 294 295 293 289 289 291 288 286 284 284 283 283 283 280 281 282 283
294 294 293 293 293 296 299 301 302 304 299 299 301 302 300 293 292 291 291 289 288 287 287 287 288 288 289 290 289 288 288 287 286 286 285 284 284 282 282 281 280 281 282
294 293 291 291 292 295 297 300 301 302 299 300 300 301 296 295 294 292 291 287 286 285 285 285 286 285 286 286 286 286 285 286 286 285 284 284 284 283 282 281 279 279 280
293 293 292 291 292 294 297 299 300 300 298 299 299 299 296 295 295 294 292 290 289 287 285 285 285 284 284 284 285 285 284 284 284 284 284 283 283 283 282 281 280 278 278
293 292 291 290 292 294 296 299 300 301 297 298 298 295 294 295 294 292 290 289 288 286 284 284 284 284 284 284 284 283 283 283 283 283 282 282 282 282 283 282 281 281 277
292 291 290 290 292 294 296 299 301 301 296 296 295 293 293 293 292 290 288 286 285 284 282 282 283 283 283 282 283 282 282 282 282 281 281 280 281 281 281 281 281 280 279
292 291 289 290 291 292 294 298 299 296 294 294 293 292 290 290 289 289 286 285 284 283 282 282 282 282 282 282 282 282 281 281 281 281 280 280 280 279 279 279 279 279 279
292 290 289 289 289 291 292 295 296 293 293 293 292 290 288 288 287 287 285 284 283 283 282 282 282 282 281 281 281 280 281 280 280 280 279 278 278 278 278 278 277 278 278
290 288 287 288 288 289 290 291 293 293 292 291 290 289 288 287 286 286 284 283 282 282 281 281 281 281 281 281 281 281 280 280 279 279 279 278 278 277 277 277 276 277 276
290 288 287 287 288 288 289 290 290 291 290 289 290 289 287 287 287 285 283 282 282 281 281 281 281 281 280 280 280 280 279 279 279 279 279 278 278 278 277 276 276 276 275
289 288 288 287 287 287 288 289 290 289 288 288 289 289 287 287 286 284 282 282 281 281 281 281 280 280 280 279 279 279 279 279 278 278 278 278 278 279 278 277 276 276 275
292 292 291 288 286 287 287 288 288 288 288 288 287 288 286 285 284 283 282 281 281 280 280 280 279 279 279 283 283 280 279 278 277 277 277 278 279 280 282 282 280 278 275
295 293 292 290 289 288 288 287 288 288 286 287 286 285 285 284 283 282 281 280 280 279 279 279 279 279 279 285 285 283 279 278 278 277 277 277 277 278 278 282 283 283 282
294 295 294 292 290 289 287 288 287 286 285 286 285 285 284 283 283 282 281 281 280 279 279 279 279 279 279 285 285 284 279 279 278 278 277 277 277 277 276 276 276 277 278
295 294 294 293 290 287 286 285 284 284 284 284 284 283 283 282 281 281 280 280 280 279 280 280 279 279 279 285 286 284 281 278 279 278 277 277 277 279 281 277 275 275 276
289 289 289 289 287 285 284 284 283 282 282 283 283 283 282 281 280 282 281 281 280 280 279 279 279 279 279 285 286 285 283 281 281 279 278 279 278 280 281 280 277 275 276
286 286 285 285 285 283 282 281 281 281 281 281 281 281 282 281 281 281 281 280 279 279 279 278 279 279 280 281 286 287 283 282 282 280 279 278 282 283 283 283 279 278 279
284 283 282 281 280 280 280 279 279 280 280 280 279 279 279 281 281 279 280 280 280 279 278 278 277 279 279 281 285 288 287 285 282 281 280 279 281 283 283 283 284 284 283
282 279 278 278 278 277 278 278 277 278 278 278 278 279 280 281 281 281 280 279 280 279 278 278 278 278 278 279 284 285 287 287 285 283 282 281 282 283 283 283 283 282 280
277 276 275 275 275 275 277 276 277 277 279 279 280 281 281 281 282 282 281 281 280 280 279 279 279 280 279 278 278 281 283 284 285 284 281 282 282 281 280 277 278 276 276
277 278 278 275 274 275 275 276 278 284 283 282 281 282 282 282 281 281 282 281 282 283 282 282 282 281 277 277 278 278 277 277 278 270 270 271 272 273 272 271 271 272 272
277 276 275 273 272 272 271 273 277 280 280 278 279 279 279 279 278 277 275 281 282 284 283 282 280 274 278 280 281 281 280 279 279 269 268 268 268 269 269 268 268 268 268

GFSMW_sfc_thetae_069.txt.gz
Theta_e
311 313 313 313 316 320 322 324 324 323 324 323 321 322 322 326 324 325 328 329 327 327 325 320 316 314 311 307 304 296 293 293 294 291 291 291 292 291 292 292 291 290 290
310 312 313 313 312 315 318 318 318 318 319 319 319 319 318 319 320 319 320 321 321 323 321 317 314 312 308 303 297 294 293 292 293 294 292 287 288 289 290 291 290 289 290
308 310 312 312 312 311 314 314 315 315 316 317 318 317 317 316 314 315 313 311 313 316 316 315 313 310 307 302 297 295 296 291 293 296 298 290 290 287 288 289 289 289 289
310 310 311 312 311 312 313 313 314 314 315 317 316 315 313 311 311 313 312 307 307 310 312 313 312 310 308 304 298 298 297 295 293 297 299 299 295 289 283 287 288 289 288
310 310 310 311 312 313 313 313 312 313 314 315 316 315 312 312 315 316 312 307 302 305 307 307 308 307 306 304 300 297 298 297 296 297 296 296 297 298 289 283 284 286 287
309 309 310 310 310 313 312 312 311 311 312 314 315 315 312 313 315 313 308 305 302 300 300 302 304 305 304 302 300 299 300 298 299 299 296 294 292 290 290 287 284 283 285
306 308 307 306 306 308 309 309 309 309 311 312 313 314 313 314 315 312 309 302 298 297 297 298 301 302 303 303 303 300 300 298 299 299 296 295 294 292 291 289 285 284 285
306 306 308 308 307 306 306 307 307 308 309 311 311 312 313 313 314 311 311 308 303 302 299 296 297 300 302 303 302 300 299 298 298 299 295 292 291 290 289 288 284 282 282
307 306 307 308 307 305 305 306 306 307 308 309 310 310 311 312 313 311 310 308 306 304 301 297 295 295 298 300 300 298 297 298 297 296 292 290 289 289 288 288 288 285 280
306 306 307 306 305 305 305 306 306 306 307 308 309 308 309 310 311 310 309 308 305 302 300 296 294 293 295 294 296 294 293 294 293 291 289 288 287 287 287 286 285 286 285
305 306 306 305 304 304 304 305 305 305 306 307 308 307 308 309 309 307 306 305 304 298 294 291 290 290 289 290 291 291 290 290 288 288 287 286 286 285 284 284 284 284 284
303 304 305 304 302 303 303 303 304 305 306 306 306 306 306 307 306 306 304 302 296 292 292 290 288 287 287 288 289 288 288 287 285 286 285 283 283 283 283 284 283 283 283
305 304 303 302 303 303 303 303 304 304 305 305 304 304 304 303 302 302 300 296 293 289 287 287 286 285 285 285 286 286 286 286 285 284 283 282 282 281 282 282 282 282 280
305 305 305 304 304 304 303 303 303 304 304 304 303 302 303 302 301 301 298 293 291 287 286 286 285 284 284 284 283 283 285 284 284 284 283 282 281 282 282 281 281 281 280
304 305 304 306 306 304 302 302 302 303 303 302 301 301 302 302 301 299 296 292 290 287 286 284 284 283 282 282 283 283 283 283 282 282 282 282 283 285 283 280 280 280 280
303 305 305 305 303 304 302 302 301 301 301 301 299 299 299 297 295 293 290 288 286 285 284 283 282 282 281 285 287 284 282 282 281 281 281 281 282 284 284 283 284 282 281
304 304 305 305 305 304 302 302 301 300 298 297 295 294 293 292 291 289 287 286 285 284 283 282 282 281 281 286 287 286 282 281 281 281 281 281 282 281 281 284 284 284 284
304 305 305 306 306 304 303 302 299 297 295 294 292 291 291 290 289 287 286 286 285 283 282 282 282 281 281 286 287 285 281 281 281 281 281 282 280 280 280 280 281 281 282
304 301 300 299 298 298 298 294 292 292 292 291 291 290 290 288 287 286 285 285 284 283 283 283 282 282 281 286 287 284 282 281 281 281 283 283 281 283 283 279 278 279 280
297 296 295 295 293 293 290 289 289 289 289 289 289 290 288 287 286 286 285 285 284 283 282 282 282 282 281 286 286 283 282 280 280 282 283 283 284 285 285 281 279 278 279
293 293 292 289 288 287 286 286 287 286 287 287 287 286 287 286 286 286 285 284 282 281 280 280 281 281 283 285 287 284 282 281 280 280 281 283 286 286 286 285 282 281 283
289 288 286 286 285 285 285 285 285 285 285 284 284 284 285 285 285 284 283 283 281 280 279 278 279 280 282 284 286 286 284 284 281 281 282 283 286 287 287 286 286 286 284
285 284 283 283 282 282 283 284 282 283 282 282 281 283 283 284 284 283 282 281 281 280 279 278 278 278 280 282 286 287 286 285 284 284 286 286 286 287 287 287 287 285 284
282 282 282 280 279 281 281 281 281 282 281 281 281 282 282 282 283 283 283 282 281 281 279 279 279 279 279 280 283 284 286 285 285 286 285 286 285 286 285 282 284 283 282
281 281 279 278 277 279 279 281 283 282 282 281 282 283 283 283 282 283 283 283 283 283 282 282 282 280 279 280 282 284 284 285 285 285 283 283 283 282 281 280 280 279 276
280 278 277 276 276 277 276 278 281 282 282 281 282 282 283 283 283 282 282 285 285 285 285 285 284 284 284 284 284 284 285 285 286 280 279 278 279 279 278 276 276 275 272

GFSMW_sfc_thetae_072.txt.gz
Theta_e
303 305 305 306 309 314 318 324 325 323 323 323 322 321 322 322 324 325 326 328 330 332 327 323 317 313 309 304 301 298 294 293 293 290 289 288 287 286 286 286 285 286 287
301 303 304 304 307 310 315 320 323 322 322 322 322 321 320 318 320 319 320 322 323 326 324 320 315 313 309 305 299 296 293 292 291 290 289 284 283 285 286 285 286 284 285
300 301 303 304 304 306 310 315 319 321 320 320 317 312 311 310 310 312 315 317 318 322 321 318 316 313 310 304 297 295 294 291 292 292 293 285 283 281 283 284 284 284 283
301 302 302 303 304 306 308 310 312 313 315 315 313 312 311 309 310 310 309 312 312 317 319 317 315 313 310 305 298 297 297 294 291 292 295 294 286 282 278 282 283 284 284
301 301 302 303 304 304 304 306 308 308 309 311 311 310 308 308 307 306 305 306 308 312 314 314 313 311 309 305 300 297 297 295 294 294 294 293 290 287 281 277 279 281 283
300 301 301 303 303 304 305 304 305 306 308 309 310 309 309 306 304 305 306 306 305 306 308 310 311 310 309 306 301 299 298 297 297 296 296 293 291 286 283 279 278 279 281
299 300 300 299 299 301 303 304 304 303 305 306 308 309 308 306 305 306 305 304 302 301 303 305 306 307 308 306 302 299 298 297 297 297 296 295 292 289 285 281 279 278 279
299 299 300 301 300 300 301 302 302 302 303 304 306 307 308 306 307 307 306 305 303 304 303 303 304 304 305 304 302 300 299 299 298 297 295 294 291 288 285 282 280 277 277
299 299 300 301 301 299 300 301 301 302 302 303 304 305 306 306 307 306 305 305 303 302 299 300 300 302 303 303 302 300 298 299 298 298 294 289 287 286 284 283 282 279 276
299 300 300 300 299 299 300 301 301 301 301 302 303 304 304 304 305 305 303 302 301 301 298 298 298 298 299 300 301 299 298 297 295 292 288 287 285 285 285 283 282 282 281
297 298 299 298 298 299 299 299 300 300 301 301 302 303 302 303 304 304 302 301 300 298 297 296 296 294 294 296 298 296 294 294 291 289 287 285 284 284 283 281 281 281 282
298 297 298 297 297 297 298 298 299 300 300 301 301 301 301 302 301 301 301 299 298 293 293 291 292 291 292 292 294 292 291 290 288 287 285 284 284 282 282 281 280 281 281
298 298 297 297 297 297 297 298 298 299 300 300 300 300 299 300 300 299 299 297 293 290 288 287 288 288 289 289 291 291 289 290 288 287 285 283 282 281 281 281 280 280 280
298 298 298 298 298 298 298 298 298 299 299 299 299 298 298 299 299 298 296 293 289 286 285 286 287 287 286 287 286 287 287 287 286 285 284 283 282 281 281 280 280 280 279
298 298 298 299 299 298 297 297 297 298 298 298 298 299 298 298 297 294 292 288 287 285 285 284 284 285 285 284 285 285 285 284 283 282 282 282 282 284 284 281 280 280 279
300 300 299 299 299 299 298 298 297 296 297 298 298 297 293 292 291 290 289 287 285 284 283 283 283 283 283 287 288 286 284 283 283 281 281 282 283 285 285 285 284 282 280
301 300 300 300 299 299 299 297 296 295 293 292 290 288 289 289 288 288 286 285 284 282 282 282 282 282 282 287 289 287 283 283 282 281 281 282 283 283 282 285 285 284 285
299 298 296 296 296 295 295 294 291 290 289 289 287 285 287 287 285 284 284 283 282 282 281 281 281 282 282 287 288 287 282 282 281 281 281 282 281 282 281 282 281 281 282
295 294 293 293 292 292 289 286 286 287 287 288 287 285 285 284 284 283 282 281 281 280 283 283 281 282 281 287 288 285 282 281 281 281 282 283 282 284 284 281 280 280 281
292 290 290 289 287 285 284 284 284 284 285 286 286 286 283 282 282 282 281 280 280 283 282 282 282 282 281 286 288 285 282 280 280 281 282 283 284 285 285 281 280 278 278
289 288 286 285 283 283 283 283 282 281 283 282 282 281 281 280 280 279 279 280 282 281 281 280 281 281 282 285 287 286 282 281 280 280 281 284 287 287 288 285 280 280 281
286 284 282 282 281 282 281 281 280 281 279 279 279 278 277 279 280 282 282 281 281 280 279 279 279 280 282 285 287 286 285 284 280 280 282 283 288 288 288 287 285 286 286
284 282 279 279 280 279 278 279 280 280 279 279 276 275 276 277 278 278 280 280 280 279 278 278 277 278 279 282 287 287 286 286 281 282 282 284 286 287 288 288 287 285 284
279 278 277 276 275 276 279 277 278 278 279 279 279 277 277 277 278 279 278 278 279 279 278 278 278 278 278 279 283 284 284 284 284 284 284 285 285 286 286 283 286 284 283
278 276 275 276 276 276 277 279 278 278 278 279 280 281 281 281 280 280 278 277 277 279 279 280 280 278 277 279 283 284 284 284 284 284 284 283 282 282 282 279 280 278 276
276 275 274 273 273 273 272 273 278 276 275 278 280 281 281 279 276 277 281 285 284 285 285 285 283 282 283 284 284 286 286 287 287 282 280 281 281 280 278 277 276 275 274

GFSMW_sfc_thetae_075.txt.gz
Theta_e
301 301 302 304 307 314 318 324 325 326 328 325 325 326 326 325 321 326 327 330 331 329 325 322 317 313 308 304 301 297 295 293 292 290 289 289 286 285 285 285 285 286 286
297 300 300 300 303 311 316 321 324 324 327 328 327 326 324 318 325 320 322 327 330 329 326 323 317 313 309 303 300 297 294 292 292 289 288 284 284 286 285 284 285 283 285
297 297 298 299 302 305 312 317 322 323 325 325 319 314 314 311 313 315 319 319 324 328 326 322 318 314 310 304 300 297 295 292 292 291 292 285 284 281 283 283 283 282 282
297 298 299 298 299 305 310 315 319 321 322 320 319 319 319 317 320 321 316 311 315 321 323 321 318 315 312 306 301 299 298 296 291 292 294 294 287 282 278 282 283 282 282
296 297 299 299 300 301 303 308 312 315 318 319 318 317 317 317 305 305 306 306 306 314 318 318 317 315 313 308 303 299 299 298 295 295 294 293 289 286 283 280 281 281 281
299 298 300 300 300 299 301 303 306 308 310 316 313 312 313 305 303 302 303 302 304 308 312 312 315 315 313 309 304 300 299 298 298 296 297 294 291 287 283 281 281 281 282
297 297 298 299 297 299 300 301 302 304 304 305 307 306 306 305 305 304 305 302 303 305 308 310 312 312 312 308 305 301 300 298 298 297 298 298 295 292 288 284 282 280 281
296 296 297 298 298 297 300 301 301 301 302 303 304 306 306 307 307 305 305 305 305 304 306 307 310 311 310 308 305 302 300 300 298 298 298 297 296 292 288 284 282 279 279
297 298 298 297 298 297 298 300 300 300 301 301 302 303 305 305 305 304 304 305 304 303 304 305 306 306 306 306 304 302 299 299 298 298 297 296 294 290 289 286 285 282 278
295 297 297 297 297 297 298 298 299 299 300 300 301 302 303 304 304 303 303 303 303 302 300 302 304 304 304 304 303 301 300 298 298 298 296 296 293 292 289 287 285 283 282
296 296 297 297 297 297 298 298 298 299 299 299 300 300 301 302 302 303 302 302 300 300 298 297 299 300 301 301 301 301 299 298 298 297 295 294 291 289 287 285 284 284 283
296 295 296 296 296 296 296 297 298 298 299 299 299 299 300 300 300 301 300 299 299 296 297 295 296 297 298 299 299 298 297 296 295 294 292 292 287 287 285 285 283 283 283
296 296 296 295 295 295 296 296 297 298 298 298 298 298 298 299 300 300 298 297 296 294 291 292 292 293 294 295 296 296 295 295 295 293 291 288 286 285 284 284 283 282 281
295 295 296 296 296 296 296 296 296 297 297 298 298 297 298 299 299 298 297 296 294 291 288 289 289 288 289 290 291 292 292 292 291 289 289 286 286 285 284 283 282 281 281
297 297 297 297 297 296 296 296 296 296 296 297 296 298 297 296 296 294 292 291 289 288 287 285 285 285 287 288 288 289 289 288 286 286 286 285 285 285 285 283 282 281 280
298 298 298 297 296 297 296 296 295 295 294 295 295 296 293 292 291 291 290 289 287 286 285 284 284 284 285 288 290 289 287 287 285 283 283 283 283 284 286 286 286 283 280
294 295 294 295 295 294 294 294 293 292 290 289 288 288 288 288 289 288 288 287 285 284 283 283 282 284 285 288 290 289 285 285 285 284 282 282 283 283 284 286 286 285 286
293 293 293 292 292 291 290 288 286 286 286 286 285 285 285 286 285 284 285 283 283 282 281 281 281 283 283 287 290 289 284 284 284 283 282 282 283 283 283 283 282 282 283
292 291 290 289 289 288 285 283 284 284 285 286 285 285 284 284 283 283 282 280 279 278 278 279 279 282 282 286 289 288 283 282 282 282 283 283 283 285 286 282 281 281 281
290 290 287 287 285 283 282 282 283 282 283 284 284 285 283 281 280 281 279 278 279 280 282 283 283 283 282 286 288 287 282 281 280 281 282 283 284 286 286 282 282 281 281
289 289 287 285 284 283 281 281 281 281 282 281 281 280 280 279 279 278 282 283 283 282 281 281 281 281 282 284 288 288 282 281 280 280 281 282 286 287 287 285 283 283 282
287 285 282 282 283 281 280 279 280 281 279 278 278 277 274 278 280 284 282 282 281 280 280 279 279 279 281 284 287 288 284 284 281 280 281 283 287 288 288 285 285 286 284
284 282 279 279 280 278 279 277 278 278 277 273 272 272 274 275 276 282 281 280 280 279 278 278 278 278 280 282 286 288 285 285 281 282 283 285 287 289 288 288 287 284 284
279 278 277 275 275 276 276 278 277 277 272 273 275 274 273 273 275 276 277 278 279 278 278 278 277 277 278 278 283 284 284 284 282 283 283 285 286 286 285 283 285 284 284
277 275 277 275 273 273 273 276 279 273 273 273 277 279 276 274 275 276 273 274 274 277 276 274 275 275 274 278 282 284 282 282 283 282 282 282 282 282 282 283 282 282 280
275 273 274 271 270 270 272 271 276 278 272 279 279 279 279 278 278 279 280 284 284 284 284 284 281 279 280 283 285 286 286 285 286 283 282 281 281 281 280 280 278 276 276

GFSMW_sfc_thetae_078.txt.gz
Theta_e
300 298 298 300 305 311 314 321 326 329 329 328 326 326 326 330 328 331 332 332 329 326 322 319 317 314 309 306 303 298 294 292 292 289 288 288 288 286 288 288 289 290 289
295 298 298 297 299 306 313 319 323 327 328 329 329 329 328 326 328 328 327 331 331 328 325 321 317 315 310 305 301 299 295 292 292 287 288 284 286 285 287 286 286 286 286
294 295 295 296 296 299 308 315 322 325 328 329 326 315 314 312 315 316 323 326 329 329 326 323 319 316 312 305 302 298 297 292 291 291 291 284 285 284 284 285 285 283 283
294 295 296 295 295 299 302 311 318 322 326 327 324 323 323 321 322 324 320 318 321 328 326 324 320 316 313 308 303 301 299 297 291 291 293 291 288 285 280 284 284 284 283
293 295 296 298 297 297 299 305 311 317 321 323 323 322 322 322 312 309 311 309 312 316 324 323 319 316 314 311 305 301 300 298 296 294 294 292 288 287 285 281 282 281 283
295 296 298 298 297 298 297 302 309 312 315 319 318 318 319 312 305 304 306 306 307 313 313 316 319 317 315 312 307 304 301 300 300 296 298 295 293 288 285 282 282 282 283
294 295 296 296 296 296 298 298 302 306 307 312 312 311 314 309 308 306 306 302 303 305 311 311 313 315 315 313 309 305 302 302 300 299 298 298 299 292 291 286 283 282 283
295 296 296 296 296 297 298 300 299 300 302 304 306 306 308 309 309 306 304 305 306 307 305 307 311 314 314 313 309 306 303 302 301 301 299 300 299 295 290 288 284 281 281
295 296 297 297 297 297 297 298 299 299 299 300 301 302 303 304 305 303 304 305 304 304 301 304 305 307 311 311 310 306 303 303 301 300 299 299 299 295 291 289 289 290 280
296 296 296 297 297 297 297 297 298 298 299 299 299 300 302 303 304 303 303 302 303 301 300 301 303 305 307 308 308 307 305 302 301 300 299 298 299 295 293 291 289 288 289
294 295 296 296 295 295 296 296 297 298 298 298 298 298 299 300 301 303 303 303 300 300 300 301 303 303 304 305 305 305 304 300 300 299 298 297 298 295 294 292 289 287 287
295 294 294 295 295 295 295 296 296 297 298 298 298 298 298 299 299 300 300 299 299 297 299 297 299 300 301 302 302 302 302 299 297 297 296 296 297 295 293 292 290 288 285
294 294 295 295 295 295 295 295 295 296 297 297 297 297 297 297 298 298 298 297 297 295 293 294 295 296 297 298 299 300 300 299 298 298 296 297 295 291 291 289 289 287 284
294 294 295 295 297 295 295 294 295 295 296 296 296 296 297 297 296 296 296 295 295 294 291 292 292 292 294 294 294 294 296 296 296 296 295 294 292 291 288 286 285 284 282
294 294 294 294 294 295 295 295 295 294 294 294 295 296 296 295 295 293 292 291 291 291 290 289 289 288 288 288 290 290 292 291 292 289 289 290 288 289 287 286 285 284 283
293 294 293 293 293 293 292 293 292 291 290 291 290 291 290 290 290 289 289 289 289 288 287 286 287 286 287 290 292 291 289 288 289 288 286 285 285 287 288 289 288 286 284
293 292 292 291 291 290 290 289 287 287 286 285 286 286 286 287 288 288 288 287 287 286 285 285 284 284 284 289 291 291 287 287 287 287 285 283 284 284 285 287 287 288 288
291 291 290 290 289 289 287 285 284 284 284 285 284 284 285 285 285 284 284 285 285 283 283 283 282 282 283 288 290 290 287 286 285 285 284 284 283 284 284 284 283 283 284
291 290 289 288 287 286 284 282 283 283 283 284 284 284 284 283 283 282 282 280 279 278 278 280 281 282 283 287 288 289 285 284 283 283 283 283 283 285 286 283 282 282 282
289 288 287 286 284 284 282 281 282 282 284 283 283 283 283 281 281 282 280 277 278 283 282 283 283 283 284 286 288 288 284 282 281 282 283 283 284 286 287 283 281 280 281
288 286 284 283 283 282 281 280 280 281 282 281 281 280 280 280 280 280 282 283 283 282 282 281 281 282 283 283 287 289 283 282 280 280 281 282 286 287 287 285 283 283 283
285 284 282 282 281 280 279 279 279 280 279 280 279 279 277 279 279 280 283 282 282 281 280 280 279 280 281 283 286 288 284 284 280 280 281 282 286 287 288 285 286 287 283
284 282 278 278 279 275 275 276 278 278 278 276 276 274 275 276 275 282 281 280 280 279 279 278 278 278 280 281 286 288 285 285 282 282 282 284 286 288 288 287 287 284 281
277 276 274 275 274 272 274 273 278 279 277 274 278 278 273 274 273 275 279 280 279 278 278 278 278 278 279 280 282 285 284 284 282 283 283 285 286 287 286 284 285 284 284
276 274 273 274 273 272 272 270 274 277 278 277 278 280 280 276 274 275 273 275 276 277 277 278 278 276 276 278 284 284 282 280 280 279 280 282 282 282 282 281 282 283 282
274 272 272 271 271 269 270 269 268 274 276 278 279 279 279 278 278 278 278 283 283 284 284 283 280 278 281 282 285 286 285 284 284 279 278 277 277 277 278 279 278 278 278

GFSMW_sfc_thetae_084.txt.gz
Theta_e
295 294 295 295 303 309 313 318 322 326 328 328 327 327 328 329 330 330 327 323 323 321 318 317 314 312 310 310 306 300 297 294 294 293 290 289 288 289 291 292 293 294 294
292 293 293 292 294 300 309 314 320 323 326 328 329 328 328 328 329 330 330 327 324 322 319 318 315 313 311 309 305 302 296 294 294 294 290 292 292 287 289 289 292 292 295
289 291 292 292 291 292 295 307 313 319 324 327 324 315 316 315 322 327 328 328 327 325 323 320 318 314 313 309 307 304 302 298 291 294 296 288 291 288 285 288 289 291 293
292 293 294 294 294 295 293 295 305 312 317 322 322 322 324 322 324 326 328 328 328 328 325 323 320 317 314 312 308 306 305 305 296 294 294 293 292 291 291 286 286 288 289
292 294 294 294 294 295 296 296 297 305 313 318 323 322 322 323 319 316 318 324 325 327 327 325 322 319 317 314 312 308 305 306 304 297 294 295 292 290 288 295 288 284 287
293 294 294 295 295 295 296 297 301 304 309 314 317 318 320 317 311 310 312 316 320 323 325 324 324 321 319 316 313 310 307 306 307 302 303 298 293 294 290 288 294 284 286
293 293 294 294 295 295 295 296 297 299 304 309 311 313 314 313 312 310 310 307 311 311 319 319 321 322 320 318 315 311 308 306 306 305 301 303 301 303 296 295 295 287 287
292 293 294 294 294 294 295 295 296 296 298 301 305 307 309 310 310 309 307 308 308 312 315 316 318 318 319 317 315 312 308 306 305 305 305 303 303 303 301 298 295 292 286
292 293 293 293 293 293 294 294 295 296 296 297 297 299 301 303 304 305 304 305 304 305 305 307 314 315 315 315 315 312 308 307 305 304 304 304 303 302 302 300 299 298 296
293 293 293 293 294 293 293 294 294 294 295 296 296 297 297 298 298 299 300 300 301 301 300 301 302 306 311 313 313 312 309 306 305 304 303 303 303 302 302 300 297 298 297
291 292 293 293 294 294 294 294 294 294 294 295 295 295 296 296 296 296 297 297 298 298 298 298 298 299 300 302 306 308 309 306 304 304 302 302 303 302 301 300 297 296 296
292 292 293 293 293 293 293 293 293 293 293 293 294 294 295 295 295 296 296 296 296 296 296 296 296 297 298 298 299 301 303 304 304 304 303 302 302 300 301 300 295 296 296
292 292 292 291 291 291 291 291 292 291 290 290 291 292 292 292 292 293 294 294 294 294 293 293 293 295 297 300 301 302 302 302 303 303 300 301 299 297 298 298 296 294 294
291 291 290 290 290 290 290 289 289 289 288 288 288 288 289 289 289 289 290 290 290 290 290 290 290 290 291 295 296 296 299 300 301 301 300 299 297 297 296 295 295 293 291
291 290 290 289 289 288 288 288 287 286 286 286 286 286 286 286 286 286 286 286 286 287 287 287 287 287 288 291 292 292 294 295 296 295 294 294 294 293 296 294 293 291 289
290 290 290 289 288 288 287 287 286 285 284 284 284 284 283 284 284 284 284 284 284 285 285 285 285 285 286 291 293 294 292 290 290 291 291 290 288 290 292 294 295 291 288
290 290 289 288 287 286 286 285 284 283 282 282 282 282 282 282 283 283 283 284 284 284 283 283 283 283 284 290 292 292 290 289 289 288 288 287 287 286 288 290 292 293 293
289 289 288 288 287 285 284 283 282 282 282 281 281 281 281 281 281 281 281 282 282 282 282 282 282 281 282 289 290 290 288 287 287 287 287 287 287 286 285 286 286 287 287
289 288 287 287 285 284 283 282 282 282 281 282 281 281 280 280 279 279 282 283 283 279 281 281 281 280 282 288 289 288 286 286 286 286 285 286 285 286 288 285 284 284 283
288 287 285 285 283 283 282 281 281 279 280 280 280 280 279 277 278 279 281 281 279 282 282 281 280 281 283 286 287 287 285 285 285 283 283 284 285 286 287 285 284 281 281
286 284 283 283 283 282 280 279 279 278 279 278 278 277 277 276 276 277 277 278 278 280 277 280 280 278 282 282 285 287 285 285 284 282 282 282 285 287 287 287 283 282 283
285 285 283 282 282 280 277 276 276 278 275 277 279 279 274 279 277 272 275 278 282 281 282 281 280 279 281 282 284 286 287 287 282 281 281 282 284 286 287 285 286 286 284
285 284 279 278 278 274 273 274 275 274 274 272 275 279 279 280 282 280 278 276 275 280 279 279 279 278 277 276 284 285 287 286 282 282 282 284 285 286 286 286 286 283 282
278 275 273 274 273 271 273 271 272 271 265 268 272 277 279 280 281 282 280 278 272 273 275 274 275 274 274 275 278 284 284 284 282 282 281 283 285 286 285 284 284 282 282
275 273 272 273 274 272 270 268 269 265 266 267 271 274 277 280 281 281 280 279 275 277 275 276 273 272 269 273 283 283 280 278 280 276 278 281 282 282 282 282 282 282 282
273 273 274 274 273 268 266 265 262 261 261 266 269 271 272 276 279 279 278 282 284 284 285 285 281 273 280 284 285 285 285 285 283 279 278 278 279 279 279 280 279 279 279

GFSMW_sfc_thetae_087.txt.gz
Theta_e
295 295 296 297 299 311 317 322 325 329 330 329 328 328 327 329 329 329 327 325 324 322 320 319 316 315 312 312 311 307 303 302 300 300 301 297 297 297 299 301 302 304 304
292 293 295 295 297 300 309 315 321 325 329 330 331 330 329 329 330 330 329 326 325 323 321 320 317 316 315 311 309 305 300 304 299 302 296 299 302 297 297 299 299 301 301
293 294 296 296 297 296 296 307 315 321 326 329 328 322 323 322 328 328 328 328 325 324 322 320 319 316 315 312 310 308 305 302 296 301 302 294 296 298 296 297 297 298 300
295 295 295 296 297 298 299 297 302 312 319 326 326 326 326 324 327 328 329 328 327 325 324 322 320 318 315 314 311 310 309 307 301 297 299 299 300 297 298 293 292 296 295
294 295 295 296 297 298 299 302 303 304 310 319 325 323 325 326 324 323 324 327 327 328 326 324 322 320 317 316 314 311 308 308 308 299 299 299 296 293 291 299 304 288 291
294 295 296 296 297 298 298 300 302 303 311 315 319 321 322 321 318 318 318 321 325 325 325 325 324 321 320 318 315 313 311 309 308 308 305 301 298 296 295 294 299 302 299
293 294 294 295 295 296 297 298 299 299 301 308 313 316 318 318 318 317 316 314 313 314 320 321 321 322 321 320 317 314 311 308 308 307 306 305 305 305 299 298 297 295 294
293 293 294 294 294 294 295 296 297 297 298 300 301 305 308 311 312 312 312 313 313 315 317 319 319 320 319 319 318 315 313 311 308 308 308 307 305 306 304 299 296 295 293
292 293 294 294 294 294 294 295 296 296 297 297 298 299 300 301 302 303 305 307 308 308 309 309 312 315 315 317 317 314 312 310 308 307 307 306 307 304 304 303 301 300 297
293 293 294 294 294 294 294 294 294 294 294 295 297 297 298 299 299 300 300 300 301 302 303 304 304 306 310 312 313 313 312 309 308 307 306 306 306 305 303 302 302 301 300
292 293 293 293 293 293 293 293 292 292 292 293 294 295 295 296 297 297 297 298 298 299 299 300 301 301 302 304 306 308 309 308 308 306 305 304 305 304 304 302 301 300 299
292 292 292 292 292 292 292 291 291 291 290 291 292 292 292 293 293 293 294 295 295 296 296 297 297 298 299 301 300 301 303 304 304 305 303 303 303 302 303 303 300 299 299
291 292 291 291 291 291 290 290 290 289 289 289 290 290 290 290 289 290 290 291 291 292 292 293 293 295 296 298 299 300 301 302 302 303 302 302 302 300 300 300 300 297 297
291 291 290 290 290 290 289 289 289 288 287 287 288 287 288 288 288 288 288 288 288 289 289 290 289 290 291 291 293 295 298 299 300 300 300 300 299 299 299 296 296 296 294
291 291 290 290 289 289 288 288 288 287 286 286 286 286 286 286 286 286 286 286 286 287 287 287 288 288 289 289 290 291 293 293 294 295 296 297 296 293 297 295 295 293 292
291 291 290 289 288 288 287 287 286 285 285 284 284 284 284 284 284 284 284 284 285 285 285 286 286 286 287 289 291 291 290 290 290 291 292 291 288 290 292 294 295 295 290
290 290 289 288 288 287 286 285 284 284 284 284 283 282 282 282 283 282 282 283 283 284 284 284 284 285 285 288 290 290 288 289 289 289 288 288 287 287 289 290 292 292 293
290 290 289 288 287 286 285 284 284 283 283 282 281 281 281 281 281 280 280 282 283 282 283 283 283 284 284 288 289 289 288 288 288 288 288 287 287 287 287 287 286 286 287
290 289 288 287 286 285 284 283 283 282 282 282 281 281 280 279 279 278 279 280 281 282 282 283 282 282 283 286 288 288 287 286 286 287 287 286 286 287 288 286 285 285 285
289 288 287 286 285 284 283 282 281 279 280 280 280 279 279 277 277 278 278 279 279 280 282 282 282 281 281 284 286 287 286 285 285 286 285 284 286 287 288 285 285 284 283
288 287 285 285 284 283 281 280 279 278 278 277 278 279 280 278 278 279 279 278 277 280 280 280 282 280 280 281 285 286 285 284 284 285 284 284 285 286 287 288 285 284 284
287 285 284 283 281 280 277 276 277 278 275 274 274 275 278 281 281 281 281 281 279 279 279 278 279 280 280 281 284 285 286 287 284 283 283 283 284 286 287 287 286 287 285
285 282 279 277 278 274 274 274 276 274 273 269 269 271 274 277 279 282 282 282 282 280 277 277 277 278 279 278 282 284 286 286 283 283 284 285 285 286 286 286 286 284 283
277 274 273 273 273 272 273 272 272 270 263 266 268 271 272 274 277 280 281 281 281 279 278 279 279 279 277 277 278 283 284 282 282 282 281 284 285 286 285 284 284 283 283
274 272 272 272 273 271 270 268 269 265 265 266 268 270 272 272 274 277 280 281 281 281 280 281 281 280 277 278 284 284 281 280 282 278 279 282 283 283 283 283 282 283 283
272 271 270 270 270 268 268 266 262 260 260 265 268 268 269 270 272 276 279 282 282 284 283 284 283 284 281 284 285 285 285 284 283 277 278 279 280 280 280 280 279 278 278

GFSMW_sfc_thetae_093.txt.gz
Theta_e
307 306 307 308 309 315 326 330 332 335 335 332 331 331 330 333 333 334 334 333 332 334 332 330 329 327 321 321 320 319 318 315 316 311 312 313 315 316 316 316 316 316 317
305 305 306 306 306 308 313 323 329 332 335 332 332 332 331 332 333 333 333 332 331 332 332 330 328 325 320 319 319 317 316 312 312 308 306 305 312 316 314 315 313 313 315
303 305 306 309 309 307 308 311 319 327 332 334 331 331 329 330 330 330 330 330 330 331 330 328 327 325 321 318 319 318 312 311 312 308 308 302 300 310 315 312 312 312 311
305 306 307 308 309 311 310 307 313 319 325 331 331 329 327 324 327 329 331 330 330 330 330 328 326 324 322 319 319 318 316 313 310 304 306 308 307 301 301 304 306 307 308
305 305 305 307 308 312 315 312 308 314 320 324 327 327 325 325 326 327 327 328 329 328 328 327 326 325 323 320 319 317 314 314 312 308 306 303 304 304 299 301 307 310 303
304 304 305 307 308 310 312 315 318 316 315 320 324 324 322 322 322 323 325 327 326 326 326 326 326 325 324 322 320 319 317 314 313 312 311 305 304 300 300 298 301 302 306
304 304 304 305 306 307 308 309 311 314 319 318 319 320 321 322 321 320 321 320 321 322 323 323 322 322 322 321 319 318 316 315 313 312 312 311 309 309 306 303 303 302 306
304 304 304 304 305 305 306 307 307 307 309 310 311 313 317 317 315 313 313 313 313 313 312 313 315 317 318 317 317 318 317 317 315 313 313 312 311 309 309 306 305 301 303
303 303 304 304 303 303 304 304 304 305 305 306 306 306 307 307 307 307 307 307 307 306 307 308 308 310 311 312 312 314 313 313 313 313 312 311 312 312 309 309 307 304 300
302 302 302 302 302 302 302 302 302 302 302 303 303 302 302 303 303 302 301 301 302 302 302 302 303 304 305 307 308 309 310 310 310 309 309 309 310 310 310 308 307 306 303
301 301 301 301 301 302 302 301 301 300 300 300 300 300 299 300 299 299 298 298 299 298 298 298 299 300 300 301 302 303 304 304 305 306 306 305 307 307 307 307 307 305 304
301 300 300 300 301 300 300 299 299 298 298 299 299 298 298 298 297 296 296 296 296 297 297 297 297 297 297 298 298 298 299 299 300 301 302 301 301 302 303 304 303 304 304
300 300 300 299 299 298 297 296 296 296 296 297 296 295 295 295 294 294 295 295 295 295 295 295 294 294 295 294 295 295 295 296 297 297 297 297 297 296 297 299 299 300 301
299 299 299 299 298 297 296 295 295 295 295 295 294 293 293 293 293 293 293 293 293 293 292 293 292 292 292 293 292 291 292 293 293 294 294 294 293 294 295 295 295 295 295
298 298 298 297 297 296 295 295 294 293 294 293 293 292 292 291 291 291 290 290 290 290 290 289 290 290 290 290 289 289 290 290 290 291 290 291 290 289 291 291 291 291 291
298 298 298 296 295 295 294 293 292 292 293 291 290 290 289 289 289 288 288 288 288 288 288 288 288 288 288 290 290 289 288 288 288 288 289 290 289 290 290 291 292 292 289
298 297 296 295 294 294 293 292 292 291 290 290 288 287 287 287 287 286 286 286 286 287 286 287 287 287 288 289 289 289 287 287 288 288 288 288 288 288 288 289 290 290 290
298 296 296 295 294 293 292 291 291 290 289 288 287 286 286 285 285 284 284 285 285 285 285 285 285 286 286 288 288 288 286 287 287 287 287 286 287 287 286 287 286 286 287
297 296 296 295 293 291 290 289 288 288 287 286 286 285 284 283 283 281 283 284 284 284 284 284 284 284 284 287 287 287 285 285 285 286 286 286 286 288 289 286 285 285 286
296 295 294 292 290 289 289 287 286 286 285 284 283 283 283 282 282 283 283 284 284 284 284 284 285 284 283 286 286 286 284 283 284 285 285 286 288 288 287 285 284 283 284
294 293 292 290 289 286 286 285 285 284 282 282 282 281 281 280 281 282 283 283 283 284 284 284 285 285 284 284 286 286 284 283 283 284 284 286 286 286 287 287 285 285 286
291 290 288 286 285 285 285 284 284 282 281 279 279 278 278 279 280 279 281 282 283 283 283 284 284 285 285 285 286 286 286 286 285 284 284 284 285 286 287 286 287 287 285
288 288 286 284 283 282 283 283 281 279 278 275 274 276 277 278 279 279 279 280 282 282 282 282 283 283 284 284 286 286 286 286 284 284 284 285 285 286 286 286 285 284 284
284 283 283 282 280 280 280 279 278 276 271 273 274 275 276 277 278 279 279 280 280 281 281 281 282 282 283 283 284 284 284 285 284 284 284 285 286 286 285 283 284 284 284
282 282 282 281 279 279 278 276 274 271 272 272 273 275 276 276 276 277 278 278 279 280 279 280 282 281 281 282 285 285 284 285 285 283 283 282 283 282 282 282 281 281 282
280 279 278 277 276 274 273 272 269 268 267 270 273 274 272 274 274 275 275 279 280 281 282 284 283 283 285 284 284 286 286 285 284 282 280 279 279 279 279 279 279 278 277

GFSMW_sfc_thetae_096.txt.gz
Theta_e
300 300 301 300 301 305 320 325 328 331 331 330 330 330 329 331 332 332 332 331 331 331 329 324 324 323 320 319 317 316 314 313 313 308 308 310 311 313 313 313 312 312 314
298 301 299 298 300 301 303 314 324 328 331 331 331 330 330 330 332 332 331 331 330 330 330 328 325 324 319 317 316 316 313 312 311 308 305 303 305 311 311 313 311 311 310
299 300 301 302 304 301 301 304 311 322 328 330 331 329 328 328 328 328 328 329 329 329 329 328 326 324 320 317 316 316 314 313 309 307 308 302 301 305 311 311 311 310 307
299 301 302 301 303 306 304 302 304 312 321 329 326 327 325 323 326 328 329 328 328 328 328 327 326 324 321 318 317 317 316 313 311 306 308 310 307 302 302 307 306 307 306
300 300 300 303 304 307 308 300 303 310 315 319 326 326 323 323 323 324 325 326 326 326 326 325 324 323 322 320 318 316 314 315 313 310 306 303 304 304 302 302 306 307 306
298 299 301 303 303 304 307 311 306 308 312 316 319 319 319 320 320 319 320 321 321 322 323 323 322 322 322 320 319 318 316 314 313 313 312 307 305 302 300 300 305 305 308
298 298 299 300 301 301 302 305 311 312 313 313 314 314 317 317 317 316 316 316 315 313 308 310 311 315 317 317 317 316 315 314 314 313 312 312 310 310 309 305 304 303 306
299 298 299 299 300 301 301 301 302 302 303 305 307 309 310 307 305 304 304 303 302 302 303 304 304 305 306 306 308 308 310 311 310 312 312 312 312 311 310 308 305 302 303
298 298 299 299 299 298 299 299 299 299 300 300 300 299 300 300 299 298 299 298 298 299 299 299 300 301 302 302 302 303 303 304 304 305 305 307 309 309 310 309 308 304 299
298 298 298 298 298 297 297 298 298 297 297 297 297 297 296 296 296 296 295 295 295 296 295 295 296 297 297 298 298 298 299 299 299 301 300 301 302 303 305 306 306 306 303
296 296 297 297 297 297 296 296 296 296 295 295 295 295 294 295 294 293 293 293 294 294 294 294 294 294 294 294 294 294 295 295 295 296 296 297 298 298 299 300 300 301 302
297 296 296 296 296 296 295 294 294 294 294 295 294 293 293 292 292 291 292 292 292 292 292 292 292 292 292 292 291 291 291 291 291 293 293 293 295 293 295 296 296 296 298
296 296 295 295 294 293 293 292 292 292 293 293 292 291 290 290 290 290 290 291 290 290 290 290 289 289 290 289 290 289 289 290 290 290 290 290 291 290 291 292 292 293 294
296 295 295 294 294 293 291 291 291 291 291 291 290 289 289 289 289 289 289 288 288 288 288 288 287 287 287 288 287 287 287 288 288 289 289 289 288 289 288 288 288 289 290
296 296 295 294 292 291 290 290 290 290 291 290 289 288 288 288 287 286 286 285 284 286 285 284 284 285 286 287 286 285 286 285 286 286 287 287 287 289 289 288 287 287 286
296 296 295 293 292 291 290 290 289 289 289 287 286 286 285 285 284 284 284 283 283 283 283 283 283 283 285 289 290 289 285 284 284 284 285 285 287 288 289 290 290 289 286
296 295 294 293 292 291 290 289 288 288 286 284 284 284 284 283 283 283 282 282 282 282 282 282 282 282 282 288 289 288 285 284 283 284 285 285 285 286 286 287 288 287 288
296 295 293 292 291 290 289 288 287 286 285 284 283 282 282 281 282 281 280 281 281 280 280 281 281 281 282 287 288 287 284 283 283 283 285 285 285 286 285 286 285 285 285
297 294 293 292 290 289 288 285 285 285 284 283 282 282 281 279 279 276 278 279 278 278 277 280 278 278 283 286 286 286 284 283 283 284 285 285 285 286 288 285 283 284 284
295 293 291 290 288 287 286 285 284 283 282 282 282 281 280 276 276 278 277 277 276 281 281 283 284 283 284 286 286 285 284 282 282 284 284 285 286 286 286 284 283 282 284
292 291 290 288 287 285 285 283 283 282 281 280 279 278 278 275 275 275 276 274 275 278 275 279 280 284 281 280 287 287 284 283 282 283 283 283 285 286 287 287 284 285 285
290 288 286 284 284 284 284 282 282 280 278 276 276 273 271 274 275 269 269 270 271 272 274 274 278 278 279 284 286 286 286 286 283 283 283 283 285 286 287 285 287 286 284
287 286 284 283 282 282 283 281 278 277 274 271 267 267 268 270 270 267 268 270 269 270 274 275 277 279 281 284 286 286 286 286 284 284 284 285 286 287 286 285 286 283 280
284 283 282 281 279 279 279 277 275 272 267 265 267 268 267 267 268 272 273 267 267 271 273 275 276 278 280 282 283 283 284 284 284 285 283 284 285 286 284 282 281 281 281
283 284 282 281 279 277 274 272 271 269 268 266 268 267 268 266 268 269 269 271 271 272 272 277 278 278 278 281 284 284 283 284 285 284 282 281 280 280 279 273 274 275 276
281 280 279 277 274 272 270 267 265 265 263 265 267 266 266 266 268 268 270 276 278 279 280 281 280 280 283 284 285 286 284 285 286 275 278 278 278 277 277 269 269 270 272

GFSMW_sfc_thetae_102.txt.gz
Theta_e
300 302 306 313 316 319 324 327 328 328 327 326 325 329 328 329 329 330 330 330 330 329 326 324 321 320 319 318 317 316 314 313 313 311 307 307 309 308 308 309 308 308 310
296 296 297 298 301 304 314 321 327 327 328 328 327 325 329 329 330 331 330 330 329 329 329 328 325 322 319 316 316 314 314 313 312 311 306 305 309 306 309 309 309 308 307
295 296 296 298 298 298 299 304 323 327 328 328 328 328 328 328 328 328 328 329 329 328 328 328 327 325 322 317 316 316 314 313 313 311 310 305 303 306 311 310 308 307 309
295 296 299 300 300 302 303 302 303 324 327 327 328 326 325 323 326 327 328 328 328 327 326 326 325 324 322 320 318 317 316 314 311 310 309 309 307 303 304 306 307 307 307
296 297 299 301 301 305 304 299 299 306 324 327 328 327 324 323 323 325 324 324 317 318 320 322 322 321 320 318 317 316 315 314 312 310 309 306 305 305 301 300 302 307 305
296 297 299 301 302 303 303 298 304 309 320 325 324 326 323 321 320 320 319 315 309 308 308 308 309 309 311 309 309 308 308 309 310 310 310 307 305 304 303 300 301 300 302
296 297 298 299 300 301 303 304 306 307 312 317 318 320 319 319 317 314 310 305 303 302 300 300 300 300 300 300 302 301 301 300 300 300 301 302 302 303 303 301 298 296 297
296 297 297 297 298 300 302 302 303 303 304 307 306 308 308 305 304 303 301 299 297 295 296 296 296 296 296 296 297 296 296 294 294 294 294 296 296 298 298 298 295 291 289
294 296 296 296 296 297 298 298 298 297 299 300 300 299 300 299 297 296 296 294 293 294 293 293 293 293 293 293 293 292 290 290 291 291 291 292 293 293 293 294 294 293 287
294 294 294 295 295 295 295 295 295 295 295 296 297 296 295 295 294 294 292 291 291 291 291 290 290 290 290 291 290 289 289 288 288 290 289 289 290 290 290 290 290 290 290
294 294 293 294 294 293 293 293 293 293 293 294 294 293 292 292 291 291 290 290 289 289 289 289 289 288 288 289 288 287 287 287 287 287 287 287 288 287 287 288 288 288 288
294 293 293 292 292 292 292 292 292 292 292 292 291 291 290 290 289 288 288 288 288 287 287 287 287 287 287 287 286 285 286 285 285 285 285 285 287 285 286 287 288 288 288
292 292 291 291 292 291 291 291 291 291 290 291 290 289 288 288 287 286 287 287 286 286 285 286 285 285 285 285 285 285 285 284 284 284 283 283 283 285 286 286 286 286 287
293 293 292 292 291 291 290 290 290 290 289 289 288 287 286 286 286 285 285 285 285 284 284 284 283 283 283 284 284 285 284 284 283 284 283 283 285 285 285 285 284 285 285
293 293 293 292 292 291 290 290 290 288 288 287 287 286 285 285 284 283 283 283 283 283 283 283 282 282 283 284 284 284 284 284 283 282 283 285 285 286 286 285 285 285 284
295 294 294 293 291 291 290 290 289 288 288 286 285 285 284 283 282 282 283 283 283 282 282 282 282 281 283 287 287 286 284 284 283 282 283 284 285 285 286 287 288 287 285
296 295 294 294 292 291 291 289 289 287 285 284 283 283 282 282 283 283 283 282 282 282 281 281 281 281 281 286 286 286 284 283 283 283 283 283 284 285 285 286 287 286 287
297 296 296 295 293 292 290 289 286 285 284 283 283 282 283 282 282 281 281 281 281 281 281 281 280 280 281 286 287 287 284 284 284 284 284 283 284 284 284 284 284 284 284
299 298 298 296 292 290 288 287 285 284 283 283 283 282 282 281 280 279 279 280 279 278 277 279 276 275 279 284 287 285 283 282 282 282 284 284 283 285 286 284 283 284 283
298 297 296 294 290 289 287 286 284 283 283 283 283 282 281 280 279 279 279 278 277 278 278 278 276 275 273 281 286 286 280 279 280 282 283 284 285 285 286 284 284 281 281
294 294 294 291 289 287 287 285 284 283 284 282 281 280 279 278 278 278 278 276 274 275 270 273 272 271 273 275 285 286 281 280 282 282 282 283 286 286 286 287 283 282 285
291 292 290 288 286 287 287 285 284 283 282 281 279 278 277 279 277 276 274 273 272 269 268 267 268 271 273 279 282 284 285 285 282 282 283 283 286 287 286 286 286 285 283
288 289 288 285 285 286 287 284 284 281 280 279 277 276 276 276 275 273 273 272 268 268 267 268 266 268 272 272 281 283 284 284 282 283 284 286 286 287 285 285 284 280 277
284 285 285 284 283 285 285 286 281 280 279 277 276 275 274 273 273 274 273 269 267 264 266 264 264 266 271 272 274 277 281 283 283 283 282 282 285 285 284 279 278 277 273
281 284 285 284 283 283 281 281 279 278 277 276 274 274 274 273 271 271 270 270 267 268 263 263 264 265 268 276 281 281 281 281 283 283 276 270 271 273 275 273 272 270 272
280 281 281 282 279 279 276 276 277 278 276 274 273 273 271 270 270 269 269 273 275 277 277 278 274 268 278 280 281 282 283 283 284 279 276 276 272 276 275 272 271 271 271

GFSMW_sfc_thetae_105.txt.gz
Theta_e
311 309 312 315 316 321 326 328 327 327 327 324 324 328 327 329 329 329 330 330 330 328 326 324 322 320 316 318 318 316 315 312 313 309 312 309 309 307 307 308 307 308 308
297 300 302 309 313 318 324 326 328 327 327 328 327 324 324 329 330 330 329 329 329 329 328 326 324 322 320 318 317 315 314 313 312 312 308 304 306 307 311 309 308 308 307
295 296 296 298 302 309 317 323 326 327 328 327 325 325 327 327 327 327 327 328 329 328 328 327 326 324 322 319 317 316 315 313 313 311 310 306 303 306 307 307 305 306 304
294 295 296 297 298 298 300 304 319 324 326 326 326 326 325 323 325 327 328 328 327 326 326 325 324 323 322 320 318 317 316 314 311 310 309 308 308 303 301 305 305 304 304
293 295 296 299 300 303 302 301 300 318 325 326 327 327 324 323 325 325 320 315 313 315 317 319 320 319 318 316 315 314 313 313 312 310 308 305 304 300 301 297 296 299 300
293 294 297 300 301 302 303 299 298 300 320 325 326 326 324 321 321 320 315 309 308 307 307 308 307 307 307 306 305 304 302 302 302 302 301 300 300 300 299 297 295 294 295
294 296 297 298 300 302 303 298 300 303 313 324 324 322 321 322 320 318 310 305 303 301 301 300 298 297 298 299 298 297 295 295 294 294 295 295 295 297 296 293 291 289 290
295 296 298 298 298 301 301 302 304 305 312 321 318 316 318 316 313 309 305 301 299 297 295 294 294 294 294 294 293 291 291 290 290 289 290 291 292 292 292 291 289 286 286
295 296 297 297 297 299 301 302 301 300 305 307 307 306 306 305 302 299 298 296 295 293 292 291 291 291 291 291 290 288 288 288 288 288 288 288 289 289 289 288 289 288 283
294 295 295 295 296 297 297 297 297 297 297 300 301 298 298 297 296 296 294 292 291 290 290 289 289 289 289 288 288 287 287 287 287 287 286 286 287 287 287 286 287 286 287
293 293 294 294 294 294 294 294 294 294 293 294 294 294 293 294 293 291 290 290 289 289 288 288 287 287 287 287 286 286 285 285 285 285 284 284 285 284 284 285 285 285 285
293 293 292 292 291 292 292 292 292 292 291 292 292 291 291 291 290 289 288 288 287 287 286 286 286 286 286 285 285 284 284 283 283 283 283 282 285 285 285 285 285 286 286
291 292 291 291 291 290 291 290 290 290 290 290 290 289 288 288 287 287 286 286 285 285 285 285 284 284 284 284 284 284 283 283 282 282 282 282 284 282 283 285 285 285 285
292 292 291 291 291 291 290 289 289 289 288 288 288 287 287 287 286 286 285 285 285 284 284 283 283 283 283 284 284 284 283 282 282 283 283 284 284 284 284 284 284 284 284
293 293 292 291 291 290 289 290 289 288 288 288 287 286 285 285 284 284 284 283 283 283 283 282 282 282 283 284 283 284 283 283 282 283 284 284 284 285 286 284 284 284 284
294 294 294 293 292 292 291 290 289 287 287 286 285 284 284 284 283 283 282 282 282 282 282 282 282 281 283 288 287 285 283 282 282 282 283 284 284 285 286 286 287 286 283
295 295 294 293 293 292 292 290 289 287 285 285 284 284 283 283 283 282 282 282 281 282 281 281 281 280 282 287 286 286 283 282 282 282 283 283 283 284 284 285 286 286 287
296 296 296 295 294 293 292 291 288 286 285 284 284 283 282 282 281 281 281 281 281 281 280 281 281 281 282 286 286 287 283 282 282 282 282 283 283 284 283 283 283 284 284
298 298 298 297 295 293 292 289 286 285 284 284 283 283 282 281 281 280 280 280 280 278 278 280 279 279 280 284 286 286 282 282 282 282 282 283 283 285 286 284 282 283 284
297 297 297 296 294 291 289 287 285 285 284 284 284 283 282 282 281 280 279 279 278 279 280 280 279 277 275 281 285 286 280 275 279 280 282 283 284 285 286 284 283 283 282
293 294 295 294 293 289 287 287 286 285 285 284 282 281 281 281 280 279 278 277 277 278 277 277 276 276 275 276 284 285 281 279 276 276 277 280 285 286 287 287 283 283 284
291 293 292 290 289 287 288 287 285 286 283 283 282 280 279 280 279 278 277 277 277 276 275 275 275 275 275 278 281 283 284 283 275 275 279 279 285 286 286 286 286 286 283
288 288 290 287 286 287 288 286 286 283 282 281 280 278 278 278 277 277 275 275 275 275 274 274 273 272 274 274 280 281 283 283 279 279 282 285 286 286 284 285 286 281 277
281 280 282 282 283 285 287 288 283 283 282 281 278 277 277 276 276 277 276 275 274 274 274 273 272 272 272 273 274 275 275 279 280 281 281 281 284 283 282 278 280 274 271
279 280 282 282 281 283 283 282 283 283 282 280 277 277 276 276 275 274 274 274 274 274 272 271 270 269 269 273 279 277 275 274 277 278 270 270 269 269 273 271 272 270 268
277 279 278 280 280 280 280 281 282 283 279 277 276 276 275 274 273 273 271 275 276 278 279 279 274 271 277 279 280 281 282 282 281 275 273 266 266 269 271 271 271 267 267

GFSMW_sfc_thetae_108.txt.gz
Theta_e
313 315 316 317 318 323 325 326 326 326 324 322 322 322 325 328 328 329 328 328 328 327 325 323 321 320 318 317 318 316 314 312 312 310 309 308 307 306 307 306 306 307 307
299 304 308 310 313 319 323 325 327 326 326 326 325 324 325 328 330 330 329 329 329 329 327 326 324 322 320 318 317 316 314 313 313 312 308 304 305 306 308 307 306 304 304
296 298 300 303 309 313 318 323 326 327 327 328 324 322 325 327 326 327 327 328 328 327 327 326 325 324 322 320 318 317 313 313 313 312 310 305 301 303 303 303 303 302 301
291 294 297 298 300 308 313 320 324 325 326 326 326 325 324 323 324 325 327 325 326 326 324 325 324 323 322 320 318 317 316 315 311 310 309 309 307 300 298 300 299 299 300
291 293 295 297 297 299 301 305 315 320 324 325 326 325 324 325 324 323 318 315 315 317 319 320 320 318 317 315 315 313 312 312 311 306 304 305 299 302 299 293 293 295 296
290 292 293 296 299 301 301 300 299 310 321 324 325 325 325 322 321 319 314 311 309 308 308 309 308 308 308 307 305 302 300 300 299 298 298 300 298 294 292 290 289 288 291
290 291 294 297 298 300 302 301 299 298 309 324 324 325 324 323 321 318 313 307 304 303 302 302 301 300 299 298 296 294 293 293 291 291 291 292 292 292 292 289 286 285 287
292 293 295 297 298 300 302 301 299 299 302 319 323 325 318 322 320 315 311 306 302 299 298 296 295 294 293 291 291 290 289 289 288 287 288 288 288 289 289 288 286 282 283
290 293 294 296 297 298 300 300 300 301 304 309 320 319 319 315 310 306 303 300 297 295 293 292 291 290 290 289 288 287 287 287 286 286 286 286 287 287 286 286 287 286 280
291 293 294 295 295 297 299 299 299 300 302 306 309 309 310 308 304 301 297 296 294 292 290 289 289 288 287 287 287 286 286 285 285 285 285 284 285 284 284 284 284 285 284
292 293 294 294 294 294 295 295 296 295 298 300 299 300 299 299 298 297 295 293 291 289 288 287 287 287 286 286 285 285 285 284 283 283 283 283 283 282 283 283 283 282 283
292 293 293 293 293 294 293 293 292 293 295 296 297 295 295 295 293 292 290 291 288 287 287 286 286 286 285 285 285 284 283 283 283 282 282 281 284 282 282 283 282 282 284
290 291 291 291 292 291 291 291 291 292 292 294 294 293 292 291 290 288 287 287 286 286 285 285 285 284 284 284 284 283 283 282 282 281 281 282 282 281 282 282 281 283 285
292 291 291 291 291 291 291 291 291 292 292 292 292 290 290 289 287 287 286 286 285 285 284 284 283 284 283 284 284 283 282 282 282 282 283 283 283 282 282 282 281 283 283
291 291 291 291 291 290 290 291 291 289 290 290 290 288 287 286 286 285 285 284 284 283 283 283 282 283 283 284 283 283 283 282 282 282 283 283 283 285 285 283 283 284 283
293 294 293 293 292 292 292 291 290 288 288 289 288 286 285 285 284 284 284 283 283 283 282 282 282 282 284 289 287 284 283 283 282 282 282 283 283 284 285 286 286 286 283
294 294 294 294 294 293 293 291 290 288 287 286 284 284 284 284 284 283 283 282 281 281 281 281 281 281 283 288 287 286 283 282 282 282 282 282 282 282 283 285 286 285 286
294 295 296 296 295 294 293 292 289 287 285 285 285 283 283 283 282 282 281 281 281 280 280 280 281 281 283 288 287 286 283 282 282 282 282 282 282 282 283 283 283 283 284
296 297 297 297 295 293 292 289 286 286 285 284 284 284 283 282 281 281 281 280 280 279 279 280 279 280 281 286 287 286 283 283 283 283 282 281 281 284 286 284 282 280 283
294 295 295 294 293 292 290 288 286 286 285 285 285 284 283 283 282 281 280 279 280 280 280 280 278 279 279 283 286 286 283 280 281 281 282 282 283 285 286 281 277 275 276
291 293 293 294 294 290 289 288 287 286 287 286 284 283 282 282 282 281 279 279 279 279 277 277 277 277 278 280 284 286 283 281 279 279 279 280 284 285 286 286 282 277 282
289 291 290 289 288 289 289 288 287 288 286 284 283 282 282 282 281 280 278 278 278 276 275 276 276 277 277 279 283 284 285 284 277 277 279 279 284 286 286 283 285 286 284
285 286 286 286 286 285 288 287 287 285 283 284 283 282 281 280 280 279 277 277 277 277 275 276 276 276 276 277 281 283 283 283 280 280 281 284 285 285 283 283 283 281 273
281 279 280 279 279 280 282 283 283 283 284 283 281 280 279 278 278 278 278 277 276 276 276 276 276 275 275 275 276 277 275 278 280 281 278 281 283 281 279 273 276 275 278
278 277 278 278 278 278 278 280 282 283 283 281 279 279 279 278 277 277 277 277 277 278 277 277 276 274 273 275 277 276 273 273 276 275 270 271 269 268 269 267 266 267 270
276 277 277 277 277 276 276 278 282 284 282 279 279 279 278 277 276 275 274 278 278 279 279 279 276 274 277 279 281 282 282 282 280 267 265 264 265 266 266 265 266 265 266

GFSMW_sfc_thetae_111.txt.gz
Theta_e
316 316 318 320 323 326 326 327 326 326 326 324 324 324 324 326 328 329 329 329 328 327 325 325 324 322 320 320 319 318 317 316 318 319 318 315 314 314 314 315 313 312 309
308 313 316 317 319 323 325 326 327 327 326 327 327 327 328 330 330 330 330 329 328 328 327 326 324 323 321 320 319 318 317 318 318 316 313 310 312 313 312 313 308 308 304
308 306 307 313 317 318 322 325 327 327 328 328 326 325 327 327 328 328 328 329 329 329 328 328 328 325 323 322 320 319 318 316 314 314 314 310 306 308 309 310 306 304 301
299 304 304 304 309 315 319 323 326 327 328 329 327 326 326 325 327 328 328 328 328 328 327 327 328 326 324 322 320 319 318 317 313 312 312 312 311 303 300 306 304 301 298
295 297 299 303 305 308 314 319 323 325 327 328 328 327 327 328 328 327 323 320 321 324 324 325 324 321 319 318 317 316 315 315 314 312 309 307 304 305 301 296 298 297 297
293 294 294 295 298 300 304 310 318 322 325 326 328 327 327 326 324 321 317 317 314 313 313 314 314 313 312 310 308 307 307 307 305 304 304 303 300 299 296 294 293 291 295
294 293 293 294 296 300 301 302 305 314 322 325 326 327 327 326 324 321 318 312 309 309 307 307 306 305 304 302 301 300 299 299 298 297 295 296 295 296 295 293 290 290 292
292 293 294 295 296 300 302 302 301 301 308 323 324 326 326 326 324 322 317 314 309 305 302 300 300 298 297 296 296 295 294 293 293 293 293 292 292 292 292 291 289 287 288
292 292 293 295 297 299 301 302 301 300 300 305 320 323 324 323 320 315 313 307 302 299 297 297 295 294 293 293 292 292 291 291 291 291 291 290 290 290 290 290 290 288 285
292 292 294 295 297 299 301 302 301 301 302 304 308 316 321 318 313 309 304 302 297 295 294 293 292 291 291 291 291 290 289 289 289 289 288 288 288 288 289 288 288 288 286
292 293 294 295 296 297 299 300 300 300 301 304 305 308 310 309 306 305 301 299 295 293 292 291 290 289 289 289 289 288 288 287 287 287 287 286 287 287 287 287 287 286 286
293 293 294 295 295 296 297 298 297 297 298 301 301 301 301 301 301 300 297 295 292 292 290 290 289 288 288 288 288 287 287 286 286 285 285 285 285 285 286 286 285 285 286
293 293 293 293 294 294 294 294 294 295 295 297 298 296 296 298 297 294 293 292 290 289 288 288 287 287 287 287 287 286 286 285 285 285 284 284 285 284 285 285 285 285 285
293 293 293 293 293 293 293 293 294 294 293 295 295 294 293 294 293 291 290 289 289 288 287 287 286 286 286 286 286 285 285 284 284 284 285 285 284 284 285 284 285 285 285
292 293 293 293 293 292 292 292 293 292 292 292 293 292 291 291 289 288 287 287 287 286 286 285 285 285 286 285 285 285 284 284 283 284 284 285 285 285 286 285 285 285 284
293 293 293 293 293 293 293 292 292 291 291 291 292 289 288 287 287 286 285 286 285 285 285 284 284 284 285 288 287 285 284 284 283 283 284 284 284 285 285 285 286 286 284
293 293 294 295 295 294 294 293 292 289 289 290 287 287 286 286 286 285 285 284 284 284 283 283 283 284 286 289 288 286 284 284 284 283 283 283 283 284 284 285 285 285 286
292 294 295 295 295 294 293 292 290 288 287 286 286 285 286 285 284 284 284 283 283 283 282 282 283 284 285 289 288 286 284 284 284 284 284 284 284 284 284 284 284 284 284
293 294 295 295 294 293 293 290 287 287 286 286 286 286 286 284 283 283 282 282 282 282 282 282 282 283 284 288 288 286 284 283 283 284 284 284 284 284 285 284 281 282 283
291 293 294 294 293 292 291 289 287 287 286 287 286 285 285 285 284 284 282 282 283 282 282 282 282 282 283 288 288 287 284 283 283 283 283 282 283 285 285 283 283 282 283
289 290 291 292 292 289 289 288 287 287 288 287 285 284 284 285 284 283 282 282 282 281 281 281 280 280 281 283 287 288 284 284 283 282 282 283 284 285 285 286 284 283 284
287 287 287 288 289 287 287 286 286 287 285 285 284 284 284 284 283 283 281 281 281 280 279 278 277 278 279 281 286 287 287 286 283 281 282 282 284 284 286 286 285 285 284
285 284 282 284 286 283 286 285 284 284 284 284 284 283 283 283 283 282 280 280 280 279 278 278 277 277 278 279 283 285 286 286 282 282 282 283 284 285 284 283 283 279 280
280 279 280 280 279 279 281 282 283 283 283 283 283 282 282 281 281 282 281 280 279 278 278 278 278 278 277 277 279 280 283 283 283 283 282 282 283 282 280 276 277 276 277
279 278 278 278 279 277 278 277 280 282 282 282 280 280 281 280 280 280 280 280 281 281 279 280 280 278 277 278 280 279 278 278 279 278 277 278 275 275 274 273 272 273 273
276 277 276 275 277 274 274 274 277 281 281 279 279 280 280 280 279 278 277 280 281 283 283 282 281 278 280 282 282 282 282 282 283 276 274 273 272 272 271 270 270 271 270

GFSMW_sfc_thetae_114.txt.gz
Theta_e
322 326 329 331 331 332 331 329 326 327 328 327 326 328 327 329 330 332 332 331 330 329 327 327 327 328 327 326 326 323 322 321 324 323 323 321 321 319 318 317 313 307 304
319 322 325 328 330 331 332 332 331 329 329 329 330 330 330 331 332 333 331 330 330 330 328 328 326 328 326 324 323 321 320 320 322 320 319 315 315 318 315 314 310 303 304
315 318 322 324 327 329 331 332 333 333 332 332 331 331 333 332 331 331 331 331 331 330 330 329 330 327 327 327 323 322 321 320 318 320 319 313 310 311 314 313 308 300 301
314 317 318 321 324 326 329 332 333 333 333 333 331 329 328 327 330 331 331 332 333 331 332 330 330 330 331 327 324 322 322 321 317 318 317 317 315 307 303 307 306 299 300
307 311 316 319 321 325 327 328 330 332 334 333 332 331 329 332 333 332 332 331 330 331 331 330 330 329 328 325 321 320 320 320 319 317 314 311 311 309 304 297 297 298 299
303 305 310 314 316 320 323 326 326 329 332 333 332 332 331 331 331 331 330 325 324 326 329 328 326 322 319 318 317 316 316 316 316 315 313 309 305 302 299 297 296 294 296
303 302 302 301 307 312 314 319 323 324 328 331 331 332 332 332 331 331 329 324 318 316 317 318 317 314 312 310 309 309 311 312 309 306 303 302 299 299 297 296 294 293 295
301 301 302 303 304 305 307 311 314 320 324 328 329 331 330 330 332 332 330 326 323 322 314 314 313 307 305 303 304 304 304 304 301 299 298 297 296 296 296 294 293 291 292
299 299 300 301 302 303 305 307 309 312 318 323 326 326 327 326 327 329 330 326 322 313 307 306 303 300 299 300 302 300 297 298 298 297 296 295 294 295 294 294 294 292 289
298 299 298 300 301 303 305 308 309 310 311 314 323 323 325 326 326 325 322 318 312 307 305 300 300 296 296 298 298 296 296 295 295 295 294 293 293 293 293 292 292 292 291
299 299 300 300 302 303 304 307 308 309 308 308 309 318 324 324 320 316 311 308 304 303 303 302 296 295 294 295 295 295 294 293 292 292 292 291 292 291 291 291 291 290 290
298 299 300 300 300 301 303 305 307 308 309 309 310 310 313 317 314 316 310 305 300 302 296 298 294 294 294 294 293 292 292 291 290 290 290 289 289 289 289 290 289 289 289
299 299 299 300 300 301 303 305 306 306 306 306 308 309 310 310 311 307 305 303 297 297 293 295 293 292 292 292 292 291 291 290 290 289 289 288 288 287 288 288 288 288 287
299 299 299 299 300 301 302 303 303 304 303 303 306 306 306 306 306 302 299 297 295 293 290 292 291 291 291 291 290 290 289 288 288 288 288 287 288 287 287 287 288 287 287
298 299 300 300 300 300 300 300 302 301 301 301 302 303 300 300 297 295 293 290 292 290 292 289 290 290 290 288 289 289 288 287 287 287 286 287 286 287 288 287 287 287 286
298 299 299 299 299 299 299 298 300 299 298 299 299 297 294 291 291 289 288 288 288 288 288 287 288 288 286 289 289 289 287 287 286 285 285 286 285 286 286 286 286 287 285
298 298 300 300 300 300 299 298 298 298 296 296 293 291 291 290 289 287 286 286 286 287 286 287 288 287 287 289 289 288 287 286 286 285 285 284 284 285 286 286 286 285 286
297 298 300 301 301 301 299 300 298 295 294 293 290 289 289 288 287 286 286 286 286 285 285 286 287 287 287 289 289 286 287 286 286 285 285 285 285 285 285 285 285 285 286
297 298 300 300 301 300 299 297 294 293 293 292 291 289 289 288 287 286 286 286 285 285 285 286 286 287 288 289 288 286 286 285 284 285 285 285 285 285 286 285 284 285 286
296 296 297 298 299 299 297 293 292 291 291 292 291 290 289 288 287 287 286 285 286 285 285 285 286 286 287 289 288 286 286 284 284 284 284 284 285 285 286 285 285 283 285
293 295 296 296 297 295 293 292 291 290 292 291 290 288 288 288 288 287 286 285 285 285 285 284 285 285 286 288 288 287 285 285 284 284 283 284 286 286 286 286 285 285 286
292 291 292 292 293 292 291 291 290 292 289 288 287 287 286 287 287 286 285 285 285 284 284 284 283 283 284 286 289 289 287 287 285 284 285 285 285 285 286 285 286 287 285
287 287 287 288 289 287 289 289 290 288 287 286 286 286 286 286 286 285 284 284 284 284 283 282 282 282 282 283 287 288 289 287 285 285 285 285 284 285 285 286 286 283 283
284 284 285 285 286 285 285 287 287 286 285 285 285 285 285 285 285 286 285 285 284 284 283 283 283 282 281 282 284 285 287 286 286 284 284 284 284 284 284 282 281 281 280
283 283 283 284 284 284 284 285 285 285 285 285 285 285 285 284 285 285 285 285 286 286 284 284 283 282 281 281 283 284 284 284 285 283 282 281 281 280 280 279 278 278 277
282 283 282 282 282 282 282 282 281 284 285 284 283 284 285 284 284 284 283 285 285 285 286 286 285 284 284 285 284 284 284 284 284 281 279 279 280 279 279 278 277 276 274

GFSMW_sfc_thetae_117.txt.gz
Theta_e
321 325 328 331 331 329 325 323 325 326 327 328 328 328 327 330 330 331 333 335 334 331 328 329 330 330 327 327 328 326 324 323 325 324 323 320 321 319 317 315 308 304 305
316 321 325 329 330 331 330 327 324 326 326 328 328 328 328 330 330 332 333 334 333 330 328 328 327 328 329 328 327 324 321 322 324 320 319 313 314 316 315 311 304 303 304
313 317 322 326 330 331 332 332 330 327 327 328 329 329 331 331 330 331 333 333 332 332 330 328 329 327 327 326 326 324 321 320 320 322 318 311 310 312 313 310 303 301 302
311 316 319 323 327 330 334 334 334 333 331 331 331 329 329 327 330 332 333 332 333 333 332 330 329 328 327 328 330 326 323 321 318 319 317 318 315 309 303 307 302 299 300
308 312 317 321 324 329 331 334 334 334 335 334 333 332 331 332 332 333 334 333 334 333 332 331 331 330 331 331 329 324 321 321 319 318 315 314 312 312 305 298 298 298 300
308 309 314 320 322 327 329 330 331 332 334 335 334 333 332 332 332 332 332 333 333 332 332 330 330 331 329 325 322 320 320 318 318 318 316 311 307 303 300 297 297 295 296
307 308 308 313 318 321 325 328 328 328 331 334 334 333 333 333 332 332 332 331 330 328 328 328 326 324 322 317 315 314 314 314 314 315 311 306 302 302 299 296 294 293 295
308 308 308 308 311 316 320 322 324 325 327 331 332 333 333 333 333 333 332 331 329 326 326 325 323 318 316 312 309 309 309 311 309 304 301 299 298 299 298 296 294 291 292
304 305 306 307 307 308 310 315 318 321 324 327 329 331 332 332 331 332 333 331 331 326 324 321 315 311 308 307 305 303 301 303 302 299 298 296 296 297 296 295 295 293 290
304 303 303 304 305 307 308 308 310 312 316 323 326 328 330 330 329 329 329 328 328 319 317 312 309 306 305 303 303 300 300 299 298 297 295 294 294 294 294 294 293 292 291
301 302 303 304 304 305 305 307 308 309 310 314 320 324 326 327 326 325 326 322 318 313 312 309 305 304 301 301 299 298 297 296 294 295 293 292 293 292 292 292 292 290 291
301 302 303 303 303 304 304 305 307 309 310 311 311 316 323 322 322 322 318 312 310 308 308 304 301 300 298 298 297 294 294 293 292 292 291 290 291 290 291 290 290 290 290
302 302 303 303 303 303 304 305 306 308 310 310 310 310 310 315 319 317 312 308 306 303 302 299 298 296 295 295 295 293 293 292 291 291 290 289 289 288 289 289 289 289 288
301 302 303 303 303 303 304 305 306 308 308 308 308 309 309 310 312 314 309 305 303 299 299 296 295 294 294 293 292 291 291 291 290 290 290 289 289 288 288 288 288 288 287
300 302 303 304 304 303 303 304 305 306 306 305 306 307 307 308 305 300 299 296 298 295 295 291 290 290 291 290 290 290 289 288 288 288 288 288 288 289 289 287 287 287 287
301 301 302 303 303 303 302 303 303 303 303 303 303 304 301 298 295 293 292 290 290 290 289 290 289 289 288 291 291 290 288 287 286 286 286 287 285 287 288 288 289 289 286
300 301 301 302 303 303 303 302 302 303 301 299 297 295 293 292 291 290 289 288 289 288 288 288 288 288 287 291 291 290 287 286 286 285 285 284 285 285 285 287 287 286 287
301 301 301 302 304 305 304 303 303 301 297 296 294 291 291 290 289 288 288 288 288 287 287 288 287 288 287 291 290 288 287 286 286 286 285 284 284 285 285 285 284 284 284
300 299 301 301 302 302 303 300 297 296 295 295 293 291 290 288 288 287 287 287 286 286 286 286 287 287 287 290 289 287 286 285 285 285 285 285 284 285 286 284 284 284 284
298 298 299 299 300 301 300 295 294 294 294 294 293 292 290 288 288 288 287 287 287 285 285 285 287 286 287 290 289 287 285 284 284 284 285 284 285 286 286 284 284 282 283
295 295 297 296 296 295 294 293 293 292 293 291 290 288 288 287 289 288 287 286 285 284 284 285 285 286 287 288 289 288 285 284 284 283 283 284 287 287 286 286 284 284 285
293 291 293 292 292 292 292 291 291 292 289 288 287 287 286 287 286 286 286 285 285 285 284 284 284 285 286 287 289 288 287 287 284 284 284 284 286 287 286 286 286 287 286
288 288 288 288 288 287 288 288 289 288 286 286 285 285 285 286 286 286 285 284 285 284 284 283 283 283 284 286 289 289 288 288 285 285 286 286 286 287 287 287 286 284 285
285 285 286 285 284 285 285 285 286 285 285 285 285 285 285 285 285 286 286 286 284 284 284 284 283 283 282 284 286 287 288 287 286 286 285 285 285 285 284 283 285 283 282
284 284 284 284 283 284 284 284 284 285 285 285 284 285 285 285 285 285 286 285 286 287 285 285 285 284 282 283 285 286 286 286 286 284 284 283 282 282 282 282 282 281 279
283 283 282 282 282 283 282 282 282 283 284 284 284 285 285 285 284 284 284 287 287 287 288 289 287 286 287 287 286 286 287 288 287 283 281 280 281 280 280 280 279 278 277

GFSMW_sfc_thetae_123.txt.gz
Theta_e
321 323 325 323 323 319 321 323 324 326 328 327 323 323 323 322 320 321 324 326 324 324 322 322 322 322 320 320 319 317 316 316 320 318 316 315 314 308 300 298 298 299 298
312 319 322 323 324 321 318 322 324 325 327 327 326 325 324 323 324 324 324 326 325 325 324 322 322 323 321 319 318 316 314 315 320 315 314 309 310 304 299 296 298 296 296
311 314 319 322 324 320 316 319 322 324 327 327 326 321 320 321 321 322 323 325 327 326 325 323 323 321 322 320 319 319 316 314 317 318 313 308 306 305 302 296 297 296 294
305 314 318 320 323 324 320 317 322 323 325 325 323 322 321 320 323 324 324 324 326 327 326 324 323 322 322 319 320 321 319 318 315 315 316 313 311 304 299 296 295 295 294
300 306 316 319 322 325 322 319 318 321 323 323 324 322 321 322 323 324 322 323 326 327 326 325 323 322 321 321 320 320 319 320 317 314 311 309 308 306 300 293 289 293 293
301 300 310 318 320 323 324 323 320 318 320 321 322 322 321 320 321 322 322 323 325 327 327 326 325 323 322 321 320 320 319 319 320 316 312 309 307 304 299 291 288 289 291
302 302 300 310 315 319 323 324 324 322 319 319 320 321 320 321 322 323 324 324 325 326 326 325 324 324 323 322 321 319 319 318 318 316 314 310 306 304 298 292 289 287 290
300 301 302 304 313 316 322 323 324 325 326 323 320 321 321 323 324 325 325 325 326 327 328 327 326 325 323 323 321 320 319 318 318 314 309 308 304 299 295 292 288 285 286
295 300 298 299 306 310 314 320 322 324 324 326 326 324 322 323 325 326 326 327 327 327 326 326 324 323 322 319 318 318 315 313 312 313 307 302 297 296 293 292 290 287 283
294 295 297 298 298 305 311 313 316 318 320 319 323 326 326 326 326 326 325 326 326 325 323 322 322 317 317 315 315 314 309 310 302 298 297 294 293 292 291 291 289 289 288
293 294 295 295 296 296 298 301 305 310 312 315 315 317 320 322 323 326 325 324 322 322 323 322 320 317 314 312 312 309 306 306 300 296 296 292 291 290 289 289 288 288 288
293 293 294 294 295 295 295 296 297 299 301 304 309 311 313 315 317 321 322 319 321 316 318 316 314 312 311 309 309 306 304 304 300 295 293 291 291 289 288 288 287 287 288
294 295 295 295 295 295 296 296 297 297 299 301 301 302 305 310 312 313 315 316 315 311 309 309 309 307 307 306 306 306 303 302 301 296 292 291 290 288 287 286 286 286 287
294 294 293 294 295 296 296 296 297 298 299 301 301 301 301 303 306 309 309 310 310 308 306 306 306 304 304 303 301 300 299 300 297 295 292 290 290 288 287 286 286 286 284
292 293 294 294 295 295 295 296 297 298 299 299 299 299 299 300 300 301 302 301 302 303 302 300 298 298 298 297 295 294 295 293 292 291 289 290 289 288 289 287 285 285 284
294 294 294 294 295 296 296 296 296 297 297 297 297 296 296 295 294 293 293 293 294 295 294 293 294 293 294 295 295 295 292 291 289 288 288 288 286 289 290 290 290 288 285
294 294 294 294 294 295 296 295 296 296 295 293 291 291 291 291 289 288 289 289 289 288 289 290 291 290 290 294 294 292 291 290 289 287 287 288 287 286 287 290 290 289 290
293 293 293 293 294 295 296 296 295 293 291 289 289 289 289 288 288 287 287 287 287 289 289 289 289 289 289 293 293 290 288 288 288 287 287 286 285 286 286 286 286 286 287
294 293 293 294 294 294 294 292 289 289 289 289 288 288 287 284 285 283 284 288 287 286 287 286 287 287 287 291 292 289 286 286 286 286 286 286 286 287 288 285 284 283 283
293 292 292 292 291 289 290 288 288 287 287 287 287 287 287 282 282 283 281 282 286 286 285 286 286 286 286 291 292 289 287 285 285 285 285 284 286 287 288 284 283 281 282
290 290 289 288 287 286 287 286 286 286 286 285 285 283 283 281 281 281 281 280 284 285 285 284 284 285 286 288 291 291 286 286 286 284 283 284 287 287 289 287 284 283 284
287 287 285 283 283 284 286 284 284 283 282 280 281 280 280 283 283 277 278 284 285 285 284 284 283 283 284 287 291 291 289 288 285 284 284 284 287 287 288 287 286 286 284
284 284 282 282 281 280 282 282 280 281 279 280 281 282 282 283 283 277 279 284 284 284 283 283 283 283 283 284 289 290 290 289 285 285 285 286 287 288 288 289 287 285 283
280 278 279 278 277 277 278 277 277 280 283 279 280 276 276 278 280 278 279 279 282 283 283 283 283 283 282 284 285 287 288 287 287 285 285 285 286 287 286 285 287 285 284
278 278 278 277 276 275 275 274 276 275 278 275 276 280 279 275 276 277 277 279 278 280 279 281 284 284 282 284 286 287 286 286 286 285 284 283 283 283 284 284 284 285 284
277 277 275 275 272 270 270 270 270 271 273 277 276 275 275 274 275 274 276 284 286 288 288 288 285 280 286 288 288 288 289 289 288 284 282 282 282 281 282 282 282 283 283

GFSMW_sfc_thetae_129.txt.gz
Theta_e
318 319 322 322 320 321 321 322 326 324 322 320 320 319 318 318 315 318 320 320 321 321 320 318 318 318 317 317 316 314 313 312 313 311 312 311 304 301 303 305 303 300 297
314 316 319 321 319 321 321 321 324 326 324 323 322 321 319 317 320 318 319 321 320 321 321 319 318 318 318 316 315 313 311 311 314 310 308 307 303 300 300 301 302 298 296
312 314 317 320 321 319 319 320 323 326 327 325 324 319 318 317 317 316 318 320 321 321 321 319 318 318 319 318 316 315 313 311 312 314 310 306 304 298 295 296 298 296 293
302 312 317 319 320 320 320 321 321 324 327 328 325 323 322 321 322 322 321 318 320 322 321 321 320 320 320 319 318 317 316 312 313 312 316 313 306 301 293 295 297 296 293
299 304 313 319 321 322 320 319 320 322 325 326 327 324 322 322 322 320 319 319 318 321 322 322 321 320 320 320 319 315 316 315 316 311 312 310 308 306 297 291 292 295 294
299 300 310 317 320 322 322 319 319 320 322 324 324 324 323 322 320 319 318 319 320 320 321 322 322 321 321 319 319 319 318 317 317 316 313 311 308 305 301 296 291 293 294
304 301 302 311 316 319 321 320 317 318 321 322 323 324 323 322 320 319 319 318 318 319 320 321 321 322 321 321 320 318 318 317 317 316 316 314 313 309 304 301 292 290 290
302 301 300 307 313 317 320 320 316 317 319 320 322 323 323 322 321 320 319 319 320 320 321 321 322 322 322 321 319 319 318 318 317 317 317 317 315 312 309 304 294 286 287
295 301 300 300 310 314 318 320 318 316 317 319 320 321 322 321 320 320 319 320 320 320 319 320 320 321 321 321 321 320 320 319 317 317 317 317 318 315 312 305 301 305 289
294 294 298 299 300 310 315 319 320 318 316 317 319 319 319 320 320 320 318 319 319 318 317 318 319 320 321 321 322 321 321 320 318 318 318 317 317 314 308 303 301 300 306
292 293 293 295 297 302 308 312 315 316 317 316 315 315 316 317 318 318 318 317 317 317 318 318 320 321 322 323 322 321 320 319 318 317 315 315 315 308 305 301 301 298 297
292 291 292 292 293 295 299 306 309 312 314 315 316 316 316 315 313 315 315 315 318 319 321 321 321 322 322 322 321 320 318 317 315 315 311 311 307 306 305 301 299 299 295
291 291 291 291 292 292 293 293 296 302 302 306 308 308 309 310 312 313 314 316 317 318 317 320 320 320 320 318 316 316 313 311 312 312 308 308 304 301 297 297 296 294 292
291 291 291 292 292 292 292 293 293 294 294 296 297 298 299 300 301 303 304 306 307 309 311 311 311 309 309 308 307 306 307 307 307 305 304 303 300 300 297 295 295 292 290
290 291 291 292 292 292 293 293 294 294 295 295 296 297 297 297 297 296 297 302 303 303 303 302 299 299 300 300 300 299 300 299 299 297 297 297 295 293 295 294 292 289 288
291 292 291 291 292 293 293 294 294 294 296 296 296 295 295 293 292 291 291 292 294 295 295 294 293 292 293 295 296 296 297 296 294 293 293 292 288 291 293 293 293 291 289
292 291 292 292 292 293 294 294 294 294 294 293 291 291 290 291 290 290 290 290 289 289 289 290 291 292 293 294 294 293 292 293 293 292 290 289 288 287 289 291 292 291 292
291 291 291 291 292 292 293 293 293 292 291 290 289 289 289 289 288 288 288 287 287 287 288 289 290 290 290 292 292 292 291 291 291 290 289 288 287 287 287 287 286 286 287
293 293 291 291 292 293 293 291 289 289 288 288 288 288 288 283 284 282 282 285 286 287 287 287 287 286 287 291 291 291 288 287 287 287 287 287 287 288 290 286 286 285 285
290 290 290 291 291 291 290 288 288 287 288 287 287 286 285 282 281 282 281 280 285 285 285 286 286 285 286 289 290 290 286 285 285 285 285 285 287 288 290 286 286 284 284
290 289 290 290 289 287 287 287 286 286 285 285 283 282 283 282 281 280 280 285 285 285 285 285 285 285 285 285 289 290 286 285 285 285 284 284 288 289 290 289 286 286 285
288 287 287 286 285 286 286 285 285 284 282 282 283 284 284 284 284 282 285 285 285 285 285 285 284 284 284 286 288 290 290 289 285 285 284 285 287 289 290 289 288 289 285
285 284 284 282 282 280 283 283 282 283 283 284 283 284 284 284 284 286 285 284 285 284 283 283 281 277 279 283 287 287 289 289 287 285 285 287 287 288 289 290 289 286 284
282 278 280 280 279 275 280 283 282 282 283 282 280 281 282 282 281 278 283 283 282 278 281 280 281 282 277 277 279 280 282 284 286 287 285 286 286 287 287 285 287 286 285
279 280 280 281 278 278 278 280 282 282 282 282 281 280 276 275 276 276 275 276 275 277 274 273 274 280 281 277 285 284 283 285 285 285 283 283 282 282 282 283 284 284 284
277 277 279 278 275 275 274 273 270 274 279 278 277 275 276 274 275 277 276 286 286 287 287 286 281 275 284 287 287 287 288 288 288 284 282 281 281 281 280 280 283 283 284

GFSMW_sfc_thetae_132.txt.gz
Theta_e
316 317 319 318 318 320 322 324 323 321 321 319 318 317 318 318 314 318 319 319 320 319 318 316 316 316 315 315 314 313 312 310 311 309 311 308 304 304 304 306 304 301 298
312 314 317 319 319 320 321 323 325 322 321 322 322 319 319 316 319 317 316 318 319 319 319 317 316 316 316 314 314 312 310 311 312 309 309 307 303 300 299 302 303 300 298
309 312 315 318 320 320 319 321 323 326 323 322 321 317 316 315 315 314 316 317 319 319 319 318 319 317 317 317 315 314 312 311 311 314 312 306 304 299 295 296 301 301 297
305 309 314 316 319 320 322 322 322 323 325 324 321 320 319 318 319 320 318 316 318 319 320 320 319 318 318 318 317 316 316 313 314 313 315 313 307 299 295 293 296 297 296
301 305 312 316 319 321 320 320 321 322 325 326 325 322 320 322 322 320 318 317 317 319 320 320 319 319 318 318 318 315 315 315 317 314 309 310 306 304 298 302 290 293 295
301 301 306 315 318 320 320 319 319 320 324 326 325 324 323 323 320 319 319 320 319 318 319 320 320 320 320 318 318 318 317 316 317 319 315 312 307 306 302 296 292 293 294
300 299 298 306 314 317 319 318 318 318 321 323 325 325 325 324 322 320 319 319 318 318 318 319 319 320 320 320 319 317 317 316 317 317 318 316 315 314 309 308 305 292 294
301 301 299 304 310 315 318 319 317 318 319 321 322 324 324 324 323 321 321 319 319 319 318 318 319 319 319 319 318 318 318 318 318 318 318 318 317 316 315 311 309 298 291
297 300 300 300 306 312 317 319 318 317 318 319 320 321 322 322 322 321 320 320 318 318 316 316 317 318 318 318 318 319 319 318 318 318 318 318 319 318 317 315 312 309 305
296 295 298 298 301 309 315 318 319 317 317 318 320 320 321 322 322 319 318 317 318 315 315 315 316 317 318 318 318 320 320 319 319 318 318 317 318 318 317 314 313 309 309
297 295 294 295 298 301 309 315 317 316 314 315 317 318 319 319 319 319 317 317 315 314 315 315 316 317 318 319 319 320 320 319 319 319 317 316 317 316 315 310 309 307 305
294 292 292 292 294 296 303 309 312 315 315 313 313 315 315 313 314 316 317 312 315 314 316 317 318 319 319 320 319 319 319 318 317 317 315 313 312 312 313 306 303 303 302
291 291 290 291 292 293 296 302 305 308 309 310 312 310 311 311 312 313 312 312 313 314 316 318 318 318 319 319 318 319 317 314 313 312 310 311 307 304 302 300 300 299 295
291 290 290 291 291 291 292 293 296 301 303 305 307 308 308 308 308 308 310 311 311 311 312 313 313 311 311 310 307 305 306 305 305 303 302 302 301 301 300 297 296 294 290
290 290 291 290 290 290 291 291 292 293 294 296 296 298 297 297 296 296 298 302 304 304 303 303 301 299 300 298 299 299 299 298 298 297 297 297 295 292 296 295 293 291 288
290 291 291 291 291 291 291 292 292 293 293 294 294 294 294 293 293 291 291 295 295 296 295 294 294 295 294 295 296 296 296 295 294 293 294 293 289 292 292 294 295 293 290
292 291 291 291 291 292 292 292 292 293 293 292 291 291 290 291 290 289 289 289 289 289 290 290 292 292 293 294 294 292 292 292 292 291 290 289 290 287 288 290 293 292 293
291 291 291 290 291 291 292 292 292 292 291 290 289 289 289 289 288 288 288 287 287 287 287 289 290 290 289 292 292 291 290 289 290 289 288 288 288 288 287 287 287 287 288
293 294 294 291 291 291 292 291 290 289 289 289 288 288 288 285 285 284 285 285 285 288 287 287 286 287 287 290 291 290 286 287 287 286 287 287 286 288 290 286 285 285 285
291 292 290 290 291 291 291 289 288 288 288 288 287 287 286 284 283 284 284 284 286 286 286 286 286 285 285 289 290 289 286 286 283 282 285 286 287 289 289 286 285 284 285
290 289 289 290 291 289 288 288 287 288 287 285 284 283 282 283 283 284 283 285 285 285 285 285 285 285 285 285 290 290 286 285 285 284 282 282 287 288 289 290 285 286 285
288 288 288 288 287 287 288 287 286 284 282 284 284 284 284 284 284 286 285 286 286 285 285 284 283 281 280 286 288 289 290 289 286 285 284 282 287 288 289 288 289 289 287
287 286 288 285 284 283 284 286 284 284 284 285 285 285 285 285 285 286 285 285 285 284 283 283 282 278 277 278 285 287 288 288 286 285 286 288 288 288 287 288 289 286 284
284 283 284 283 281 277 281 282 284 284 285 284 283 283 284 284 285 285 285 286 284 283 283 283 282 281 275 276 278 279 284 284 286 286 285 286 286 287 285 281 284 285 285
279 281 284 283 281 280 281 282 283 284 283 282 281 282 282 282 280 279 279 278 274 278 275 271 278 280 279 276 284 282 281 285 286 284 283 283 282 282 282 280 281 281 284
278 279 280 279 278 278 278 279 281 283 282 280 280 279 278 278 279 281 281 286 285 287 286 284 279 273 285 287 287 287 288 288 288 284 282 281 281 281 281 280 281 282 282

GFSMW_sfc_thetae_135.txt.gz
Theta_e
316 319 321 322 322 325 326 325 323 324 325 324 322 322 320 322 321 322 324 324 324 324 323 322 321 321 320 320 320 320 319 318 318 316 313 310 310 310 308 311 310 308 306
312 315 318 320 321 322 325 326 324 324 324 325 325 325 324 322 323 322 322 324 324 324 324 323 322 321 320 320 320 319 317 318 318 316 314 309 310 307 310 310 309 308 306
306 311 315 318 321 321 322 324 326 324 324 325 324 320 320 319 320 319 320 320 323 324 323 323 323 321 321 320 320 319 318 318 316 318 315 308 308 308 305 304 307 307 306
304 309 314 316 319 321 323 324 325 326 324 324 323 322 321 319 321 322 322 321 321 321 322 323 323 322 321 321 321 320 320 319 317 316 317 315 311 306 307 301 301 303 304
304 305 309 315 319 321 322 323 324 324 326 325 324 322 322 323 324 322 320 320 320 321 321 322 322 321 321 322 322 320 320 319 320 318 317 315 315 308 306 308 310 298 302
304 305 307 313 316 320 322 323 322 322 325 326 324 324 323 323 321 321 320 320 320 320 321 321 322 322 322 321 321 321 320 320 320 321 320 316 313 311 309 306 309 309 310
303 304 303 307 314 317 319 321 321 321 322 324 325 325 324 324 323 322 322 322 321 321 320 321 321 321 322 322 322 321 320 319 319 319 319 320 318 318 313 311 311 308 299
302 302 302 303 310 315 318 319 318 319 321 323 325 326 326 325 324 325 324 323 323 322 322 320 321 321 322 321 321 321 320 320 319 319 320 320 320 318 317 313 312 308 298
300 301 302 300 304 311 316 319 318 318 320 321 324 325 326 325 325 325 324 323 323 321 320 320 320 321 320 321 320 320 319 319 319 319 319 318 320 320 319 317 315 311 307
302 301 300 301 301 306 314 318 319 318 319 320 322 323 324 325 325 325 322 322 322 320 318 318 319 319 319 320 319 320 320 319 319 318 318 318 319 318 318 316 315 314 311
299 299 298 299 300 302 309 315 318 317 317 318 319 320 321 322 323 322 321 321 320 318 317 317 317 318 318 319 319 319 319 318 318 319 318 317 318 316 316 315 313 311 307
298 298 298 295 296 298 305 311 315 316 316 316 317 318 319 320 320 320 320 319 318 316 317 317 317 317 318 319 318 318 318 318 317 317 316 314 312 312 312 308 305 304 303
294 293 293 293 294 296 298 306 312 315 314 313 314 315 316 316 317 318 318 314 316 315 315 316 316 317 318 318 318 318 318 317 314 312 310 307 306 304 303 303 302 301 298
292 292 291 292 293 293 295 299 304 307 308 311 311 311 311 313 314 312 311 312 313 313 314 315 315 313 312 311 307 307 306 305 305 302 302 302 300 300 299 298 298 297 292
291 291 292 292 292 292 292 293 297 301 303 306 308 309 305 306 306 307 307 307 307 308 308 305 302 301 302 299 301 300 301 300 299 298 297 297 294 291 294 295 295 294 290
291 292 291 291 291 291 292 292 292 293 296 300 301 300 298 297 298 296 296 298 297 298 298 297 298 298 295 295 296 298 298 297 295 295 295 295 291 293 292 294 294 295 292
293 292 292 292 292 292 292 292 292 292 293 293 292 291 292 291 291 291 291 293 295 295 294 295 295 294 294 295 294 293 295 296 295 294 292 291 291 289 291 291 292 293 294
294 292 292 292 292 292 292 292 292 292 291 291 290 290 290 290 289 289 289 289 289 290 290 291 293 292 291 293 293 291 293 292 292 291 290 289 289 289 288 289 288 289 289
296 296 295 293 291 291 291 291 290 290 290 290 290 289 289 288 288 287 287 287 288 289 290 290 289 289 289 292 292 290 289 288 288 287 288 288 287 288 290 287 286 286 286
294 292 292 291 291 290 291 290 290 289 290 290 289 289 288 288 288 287 286 286 288 288 288 287 288 286 287 290 291 289 287 286 286 286 286 286 288 289 290 286 286 285 285
296 291 291 292 292 290 290 290 290 290 290 288 287 285 285 285 286 286 286 288 287 287 286 286 286 286 286 288 291 290 287 287 286 286 286 285 288 289 289 290 286 286 286
289 290 290 290 288 290 291 290 289 288 285 285 285 285 285 285 286 286 287 287 287 286 286 285 284 283 284 286 290 290 290 290 286 286 285 284 288 288 289 288 289 290 287
291 288 290 288 288 289 291 290 288 285 285 285 285 285 285 285 286 287 287 287 287 287 286 285 283 282 281 282 288 287 288 289 286 286 287 288 288 287 286 288 288 286 285
286 283 284 285 285 283 282 286 285 285 286 285 285 285 285 285 286 287 287 287 287 287 286 285 284 281 279 281 281 283 285 286 286 287 286 287 286 286 285 282 285 285 285
279 282 285 283 282 281 282 284 285 286 285 285 284 285 285 286 285 284 286 285 283 286 286 285 283 281 280 280 284 283 283 285 286 285 285 284 284 284 284 284 284 285 285
276 278 279 280 280 281 281 283 285 286 284 283 283 283 283 282 282 282 282 285 285 286 285 283 281 279 284 287 288 288 287 288 287 285 284 283 283 283 282 281 281 282 283

GFSMW_sfc_thetae_138.txt.gz
Theta_e
320 323 325 328 330 331 331 331 330 331 331 329 327 327 326 327 328 328 328 328 327 328 329 328 328 326 325 325 325 325 324 324 324 321 318 320 321 319 319 320 320 319 317
317 319 322 326 327 329 330 331 330 330 331 330 329 328 327 327 328 328 328 328 327 327 328 328 328 327 325 325 325 324 323 324 324 320 318 313 316 318 319 320 318 318 318
316 317 319 322 326 327 329 330 331 331 331 331 331 329 329 328 327 327 327 328 328 328 329 329 329 328 327 325 325 325 324 322 323 324 318 312 312 317 318 316 317 316 316
315 318 318 320 323 326 330 330 332 331 331 331 330 328 325 324 326 328 328 328 328 327 328 329 329 329 328 327 327 327 325 324 321 320 322 322 319 312 312 315 313 314 314
312 314 315 319 323 326 328 331 331 331 331 330 330 329 327 329 330 329 329 328 327 327 327 327 328 327 328 328 327 326 325 326 323 321 320 320 319 317 310 309 315 315 312
312 313 315 317 319 325 328 329 328 330 332 330 329 329 328 328 328 329 327 327 328 327 327 327 327 327 327 327 327 327 326 325 325 325 323 320 317 315 312 310 313 315 319
311 312 312 313 315 321 325 327 327 327 330 330 329 328 328 329 329 329 327 327 327 326 326 326 326 326 326 327 327 326 326 325 325 324 322 322 320 320 319 316 314 313 316
310 310 311 312 313 318 322 324 325 326 328 329 329 328 329 329 329 329 329 328 329 327 327 327 326 327 327 326 327 326 326 325 322 322 322 321 321 321 320 317 314 310 311
309 309 311 312 312 314 319 322 323 325 326 327 329 330 329 329 329 329 330 329 329 329 329 328 327 327 327 326 326 323 321 322 322 321 320 320 320 320 321 319 317 313 308
309 310 310 311 310 311 315 321 323 323 325 327 327 328 329 329 330 330 329 329 329 329 327 326 326 326 326 325 324 321 320 320 320 320 319 319 319 319 320 318 317 315 312
307 308 309 310 310 309 310 316 321 323 323 325 326 327 328 329 329 329 330 330 329 328 326 325 325 324 324 324 323 321 321 319 319 320 318 318 319 318 317 316 315 313 312
304 305 307 308 305 306 307 311 318 321 322 324 324 325 326 328 328 328 329 329 327 328 325 325 324 323 323 323 322 321 320 319 317 319 318 317 316 314 313 310 309 307 306
301 302 302 302 303 303 305 308 314 318 321 321 322 323 324 324 325 326 326 326 326 325 323 322 321 321 321 321 322 321 321 319 319 318 314 312 308 306 306 307 305 304 302
298 300 301 300 300 301 302 305 310 316 319 319 320 320 321 322 322 323 323 324 323 322 321 321 320 320 320 320 320 317 316 312 309 306 306 305 303 304 305 302 302 301 299
299 300 300 301 300 299 299 300 305 311 316 316 316 317 319 320 320 320 320 320 319 319 319 318 317 315 312 308 306 305 305 304 302 301 301 303 299 293 298 299 301 299 296
303 300 300 299 299 299 299 299 300 304 311 314 313 315 313 313 312 312 310 309 308 310 308 304 302 301 297 297 298 302 303 302 301 300 299 298 291 294 292 294 294 297 297
304 304 304 301 300 300 299 298 299 301 304 309 308 302 302 301 302 300 298 297 298 297 297 299 299 298 297 295 296 295 301 300 299 298 297 296 294 292 294 293 292 292 292
304 304 304 305 301 300 299 300 299 298 299 302 302 300 300 300 296 295 294 295 297 299 299 299 300 298 296 294 294 292 299 299 298 297 294 293 292 292 291 291 290 290 292
307 307 308 307 301 299 300 298 297 297 296 296 296 296 296 294 294 293 294 294 294 293 294 293 292 292 291 293 293 293 293 291 290 291 291 291 290 289 290 289 287 288 288
306 307 304 300 298 299 297 296 295 295 295 295 295 295 294 292 292 293 292 290 292 290 291 289 291 289 290 291 292 292 290 287 288 288 287 286 289 289 290 288 287 286 287
307 307 304 300 300 296 295 295 295 294 297 294 293 292 292 291 293 291 289 289 290 289 288 288 288 288 289 291 291 290 289 288 287 288 287 287 289 288 289 290 286 287 287
306 304 302 299 301 295 294 294 294 296 292 292 291 290 289 289 289 288 288 289 289 288 287 286 286 287 287 288 291 291 290 290 287 286 287 288 289 288 290 289 289 290 287
304 299 298 298 295 293 294 293 294 291 290 289 288 287 287 287 287 288 288 289 288 289 287 287 286 285 286 288 290 291 291 290 287 287 288 288 288 287 287 287 287 286 286
295 291 291 291 290 290 290 293 289 289 288 287 287 286 286 286 287 288 289 289 289 289 287 287 286 285 284 285 285 286 288 287 287 288 288 287 287 286 285 285 285 287 286
288 286 289 290 289 288 288 287 287 288 287 287 287 286 287 287 287 288 289 289 289 290 288 287 287 285 284 285 285 285 286 287 287 286 286 285 286 285 286 286 286 287 286
283 284 283 284 284 284 285 285 286 287 287 286 286 286 286 287 287 286 285 287 287 288 288 288 287 284 287 287 286 286 287 287 287 285 285 285 285 285 285 285 285 285 284

GFSMW_sfc_thetae_141.txt.gz
Theta_e
322 324 326 328 329 330 330 331 331 332 332 332 330 329 328 329 329 329 329 328 326 327 328 328 328 326 325 325 326 325 324 324 325 322 320 320 323 323 324 322 322 321 320
316 321 323 326 329 329 331 331 331 332 332 332 332 331 330 330 329 329 329 329 328 327 328 329 328 328 325 325 326 325 323 324 324 319 318 313 317 321 322 322 321 320 321
311 314 320 323 328 329 330 331 331 332 333 333 332 331 331 330 328 328 327 328 329 328 328 329 329 328 327 325 325 326 324 322 324 322 318 312 311 318 321 319 320 320 319
312 314 319 322 324 328 331 332 332 332 333 333 331 330 327 325 327 328 329 329 329 328 327 328 328 329 329 327 327 326 325 324 321 321 321 323 321 313 312 318 316 318 317
312 312 316 322 324 327 330 331 332 332 333 333 332 330 329 329 330 330 330 329 329 329 328 327 328 328 328 328 328 327 326 325 324 322 319 318 318 318 314 310 315 319 316
312 313 315 318 322 326 329 330 330 331 332 332 332 331 330 329 328 329 328 329 329 328 327 327 328 328 328 328 328 328 327 326 325 325 323 319 316 315 315 311 311 312 317
311 312 313 315 317 320 326 327 329 329 331 332 331 331 330 330 329 330 329 329 327 327 326 326 326 326 327 327 328 327 327 326 324 324 323 324 320 320 317 315 313 311 315
311 312 314 315 316 317 321 327 327 328 329 331 331 331 331 330 330 331 330 330 328 328 329 328 327 327 327 326 327 327 326 326 325 324 324 323 321 320 318 316 314 311 311
310 310 312 315 316 317 317 322 326 327 328 329 331 330 330 330 329 330 331 331 330 330 330 329 327 327 327 327 327 326 324 324 323 322 321 320 320 320 319 319 317 313 308
310 312 313 314 315 317 317 319 323 325 326 327 329 330 330 330 330 330 329 330 330 330 329 328 328 327 327 327 327 325 324 321 321 320 319 318 318 319 319 318 318 316 313
310 310 311 312 314 315 315 315 319 322 324 326 327 328 329 330 330 329 329 330 330 330 329 328 328 327 327 327 325 323 322 319 318 318 317 317 318 318 318 318 317 314 313
306 306 308 308 309 311 312 312 315 319 321 324 325 326 327 328 329 329 329 329 328 329 329 328 327 326 326 326 324 322 319 318 316 317 317 316 316 317 317 314 312 310 309
302 304 306 305 305 307 308 309 311 316 320 323 323 324 324 326 327 327 328 328 329 329 328 327 325 325 325 324 324 323 321 318 318 317 316 316 314 310 308 308 306 306 303
302 303 304 306 306 304 306 307 308 313 317 320 321 321 322 324 325 327 328 328 328 327 327 326 324 324 323 322 321 321 320 319 317 315 314 310 309 307 305 303 302 301 298
304 305 305 306 307 305 303 303 305 309 314 317 319 319 320 321 322 323 324 325 325 324 324 322 322 321 320 318 318 315 317 312 307 305 305 304 301 298 301 301 301 299 295
305 305 306 305 304 304 304 302 302 303 310 314 316 317 318 318 318 319 318 318 319 319 318 316 316 314 305 300 302 307 307 304 302 300 299 299 291 294 294 295 295 297 297
306 306 306 307 307 305 304 303 303 303 306 309 312 310 311 311 312 308 304 304 305 304 304 305 304 303 301 297 298 298 303 302 302 300 298 295 294 292 295 293 293 292 294
306 307 308 308 308 309 304 304 303 302 302 304 308 306 303 303 299 300 301 298 298 300 298 298 299 298 296 296 295 294 300 299 299 298 296 293 292 291 290 290 289 289 290
306 308 309 309 309 309 305 302 300 299 298 299 302 303 302 300 297 297 297 298 296 294 296 294 294 294 292 294 294 295 294 292 291 291 292 291 290 290 291 287 286 286 287
308 308 309 309 309 308 303 299 297 296 297 297 297 298 299 298 297 297 294 290 295 292 292 290 292 290 292 293 293 294 290 288 288 287 287 286 289 289 290 287 286 286 286
303 308 308 308 308 306 298 296 296 295 297 295 294 294 295 295 297 295 291 292 291 290 290 289 289 289 290 291 292 292 289 289 287 287 286 286 290 290 290 290 286 287 286
294 298 304 306 307 302 296 296 295 297 294 293 292 291 290 291 291 289 288 289 289 289 288 288 287 288 288 289 292 292 291 291 288 287 287 287 289 289 290 288 290 290 287
289 290 292 294 301 297 295 294 296 294 291 291 289 288 288 288 289 288 288 289 289 290 289 288 288 287 287 288 291 291 291 290 287 287 288 289 289 290 289 289 290 286 286
284 285 285 286 290 292 289 293 292 290 288 289 288 288 288 287 288 289 289 290 290 290 288 288 287 286 286 287 288 288 289 288 287 287 288 288 287 287 285 285 286 286 286
281 280 282 283 285 287 288 287 287 288 288 287 288 287 288 287 287 289 290 290 290 291 288 288 288 286 285 286 288 288 287 287 287 286 286 285 285 284 284 284 284 283 283
277 277 278 279 280 283 284 285 285 286 287 287 287 288 288 288 288 288 287 290 290 290 291 291 289 287 289 288 288 288 289 289 289 285 284 284 284 283 283 283 283 284 282

GFSMW_sfc_thetae_144.txt.gz
Theta_e
311 317 321 323 325 327 327 328 329 329 329 328 325 325 323 324 324 324 324 323 322 322 320 321 320 318 317 317 317 317 316 317 319 318 318 318 319 320 318 318 316 315 315
309 312 317 322 323 325 327 327 328 329 329 329 328 327 326 325 325 325 324 323 322 322 322 322 322 321 318 318 318 318 317 317 319 314 314 311 311 314 317 316 316 315 315
308 309 311 317 322 323 325 326 327 329 329 329 329 328 327 326 324 324 323 323 324 322 322 323 323 322 321 319 318 319 318 315 317 318 315 310 306 309 313 314 315 315 313
310 311 309 312 318 324 326 327 328 328 329 329 328 326 324 323 324 324 324 324 324 323 323 323 324 323 323 321 320 320 320 318 316 316 319 318 314 307 305 310 311 313 313
309 310 310 310 315 321 325 327 328 328 329 329 329 327 325 326 326 325 323 323 324 324 323 323 323 323 324 323 322 319 320 320 319 315 313 314 317 316 313 309 311 310 311
308 309 310 310 311 318 323 326 327 328 329 328 329 327 325 325 324 324 323 323 324 324 324 323 322 323 323 323 323 323 321 321 321 320 317 314 311 310 310 311 310 311 312
307 307 308 309 310 312 320 324 325 326 328 328 328 328 327 326 325 324 324 324 324 323 323 323 322 322 323 324 324 323 323 323 321 320 319 319 317 316 315 314 312 310 312
304 305 307 308 309 311 314 322 324 325 327 328 327 328 328 328 327 326 326 325 325 325 325 324 323 323 324 324 324 324 323 323 322 321 320 320 319 319 318 316 313 310 310
304 305 307 309 310 311 312 315 323 324 326 327 328 328 328 328 327 328 327 327 327 327 326 325 323 323 323 323 323 323 322 322 321 322 322 321 322 320 318 318 317 313 307
304 305 305 306 308 310 312 313 315 323 324 326 327 328 328 328 328 328 327 327 328 327 326 325 324 323 323 323 322 322 322 321 322 322 320 320 320 318 317 317 317 316 313
303 304 305 306 307 308 309 311 312 314 320 324 325 326 328 328 328 327 327 327 327 327 326 325 324 324 323 323 322 322 321 321 321 320 318 318 318 317 316 316 316 315 315
300 299 300 302 301 303 306 308 308 311 316 320 323 323 325 327 326 326 326 326 326 327 326 326 324 323 323 323 322 322 322 320 319 318 316 316 315 315 316 315 315 314 314
298 299 299 300 300 301 303 305 307 307 311 316 318 320 322 323 325 325 325 325 325 325 326 325 324 324 324 322 322 323 322 320 318 317 315 315 314 313 314 314 313 310 305
298 297 298 299 300 300 300 301 303 305 307 313 315 317 319 321 322 324 324 325 325 324 324 325 325 323 323 322 321 321 321 319 317 315 315 315 314 313 311 310 307 303 300
302 301 301 301 301 301 300 299 300 302 306 309 313 316 318 320 320 320 321 323 323 323 324 323 322 321 320 319 317 316 318 317 313 311 312 311 307 302 305 305 301 300 294
302 304 304 305 303 301 300 300 299 299 302 307 310 314 314 314 316 316 314 317 319 320 320 319 320 318 312 303 304 310 313 311 309 307 303 302 293 297 298 298 298 299 297
301 303 304 305 304 304 302 300 300 298 298 303 306 305 307 305 306 306 305 306 309 311 311 313 313 313 309 301 302 301 311 310 309 304 300 296 295 293 295 295 295 294 296
293 295 299 302 304 305 302 301 299 298 296 298 300 298 299 301 299 300 303 301 302 306 305 304 308 310 306 299 299 297 307 306 304 302 299 296 293 293 291 290 289 288 289
291 293 294 295 297 304 305 301 297 296 294 294 294 295 297 297 296 297 300 301 298 298 300 299 300 301 297 296 296 298 298 295 293 294 295 294 291 291 292 288 286 286 286
289 290 290 292 293 295 298 300 295 293 294 292 293 294 295 297 297 300 299 294 299 299 295 292 297 294 294 294 295 297 294 290 289 287 288 288 290 291 292 288 287 286 285
287 287 288 288 289 290 291 293 296 293 293 291 290 290 294 296 298 298 296 292 295 291 291 291 289 290 291 292 294 294 291 290 288 287 286 286 291 291 291 290 287 287 286
282 284 284 284 285 287 287 289 291 294 291 289 289 289 290 291 294 293 290 291 291 290 289 288 287 287 287 290 293 293 291 292 288 287 286 285 290 291 291 288 290 290 287
279 280 281 280 282 284 284 284 286 289 290 289 288 288 287 288 289 290 289 290 290 292 290 290 289 287 287 289 292 292 292 291 288 287 287 289 290 290 291 290 290 286 286
276 278 278 277 278 281 281 282 284 284 286 288 288 286 287 287 288 289 289 291 290 291 290 290 290 287 286 287 288 289 289 288 287 288 288 288 288 288 287 287 288 286 286
274 275 274 275 276 278 280 281 280 283 283 285 284 286 287 287 287 288 289 290 291 293 291 291 290 287 287 288 289 288 287 287 287 286 286 285 284 283 282 283 284 284 285
271 270 269 271 273 274 275 277 276 277 283 283 285 286 287 286 287 287 286 290 291 291 292 292 291 289 291 290 290 290 290 289 288 285 284 283 283 282 282 282 283 283 282

GFSMW_sfc_thetae_147.txt.gz
Theta_e
305 307 314 322 326 327 326 327 327 328 327 326 324 323 323 323 322 323 323 322 324 323 321 318 316 316 316 316 315 314 314 314 316 315 317 317 319 318 316 316 315 314 314
306 308 308 316 323 325 326 327 327 328 328 328 327 326 325 324 324 323 323 323 322 323 322 320 318 317 316 314 315 314 313 314 316 313 311 310 309 312 315 315 316 315 314
307 306 308 309 319 324 325 326 327 328 329 329 328 326 325 324 322 322 322 322 322 322 322 321 320 319 317 316 316 316 315 314 315 316 311 305 304 306 310 312 315 315 312
309 308 307 305 315 321 326 327 327 328 329 329 327 325 323 321 323 323 323 323 322 321 321 321 321 321 320 317 317 318 318 317 315 314 316 312 311 306 304 309 310 311 312
308 309 309 310 307 317 323 326 327 327 328 328 328 326 324 325 325 324 323 323 322 322 321 321 321 321 322 321 319 318 318 319 318 316 312 314 311 311 311 309 309 308 311
305 308 310 310 308 308 320 324 325 326 327 328 327 326 325 325 324 323 322 322 322 322 322 321 321 322 322 321 321 320 319 319 319 318 317 314 311 312 311 309 308 307 309
302 304 305 304 306 306 310 322 324 324 326 327 327 327 326 326 325 324 323 322 321 321 322 321 320 321 322 322 322 321 320 320 319 319 318 319 317 313 312 311 307 305 307
304 303 304 304 305 306 307 317 322 324 326 326 326 327 328 327 326 325 325 324 323 323 323 322 322 321 322 322 322 322 322 322 320 320 319 319 319 318 316 313 310 309 309
302 303 304 305 306 307 307 313 319 323 325 326 327 327 327 327 326 327 326 325 325 324 324 323 322 322 321 321 321 321 321 322 322 321 320 319 319 319 318 317 317 313 308
300 302 303 304 305 306 308 309 313 320 324 325 327 327 327 327 328 327 326 325 326 326 325 324 322 322 321 321 321 321 321 321 321 321 321 320 320 320 320 318 318 316 313
300 299 299 300 302 304 305 307 309 310 316 322 325 325 327 327 327 327 327 326 326 326 325 325 323 322 321 321 320 320 320 320 320 321 320 320 321 320 318 317 317 316 315
299 298 298 299 300 300 301 303 306 307 310 314 321 323 325 326 326 326 327 327 326 326 326 325 324 322 322 321 320 319 320 320 319 320 319 319 318 318 317 316 315 315 315
300 299 298 298 298 299 300 301 303 305 307 309 313 318 322 323 324 326 327 327 326 326 326 325 323 323 322 322 321 321 321 320 320 320 319 318 317 314 316 315 314 314 313
299 299 299 299 300 299 299 299 300 302 304 305 308 311 316 320 322 324 325 325 326 325 324 324 324 323 323 322 321 321 321 321 321 320 318 317 315 315 314 313 313 312 309
297 296 297 299 301 302 302 299 299 300 300 302 304 308 312 316 318 320 321 323 323 324 324 323 323 323 323 321 320 319 320 320 319 316 315 316 311 304 310 312 311 307 302
291 291 293 294 294 294 295 298 302 302 301 300 302 306 308 310 311 314 316 317 319 320 321 321 321 321 320 311 307 315 319 318 315 314 313 313 298 301 301 302 304 306 302
288 289 289 291 291 291 293 295 294 299 302 299 299 300 303 304 307 309 308 308 313 316 316 318 320 320 320 305 304 303 317 317 316 315 311 306 302 298 303 297 297 297 298
285 286 287 288 288 290 291 291 291 292 296 299 297 295 295 298 299 298 300 305 307 310 311 315 318 319 318 302 302 299 317 315 315 313 309 305 298 297 296 294 292 291 292
283 285 286 285 286 287 288 287 287 289 291 294 295 294 294 294 294 295 300 303 303 305 308 311 311 313 312 299 301 301 311 308 307 307 305 304 298 294 295 291 289 287 286
281 282 283 283 283 285 285 284 284 285 287 290 290 293 292 290 292 295 297 300 302 303 303 299 303 301 309 297 298 302 305 295 292 287 291 290 295 292 294 291 288 286 286
279 280 279 279 280 283 281 281 282 282 285 285 286 288 290 290 292 294 295 297 297 295 293 293 293 292 294 294 296 297 296 298 290 291 288 289 292 293 293 292 289 289 287
276 277 276 276 279 280 279 279 279 282 283 283 283 285 288 289 289 289 293 291 292 292 294 292 291 291 290 291 295 296 298 296 294 291 290 289 292 292 292 289 291 291 288
273 274 274 274 275 277 277 277 278 280 281 280 282 284 287 287 287 288 290 290 291 294 294 292 294 293 287 289 293 294 294 293 290 290 289 290 291 291 291 290 291 287 286
271 272 271 270 270 271 274 274 276 277 276 276 280 284 285 286 287 288 289 290 291 292 293 292 293 291 288 289 290 291 291 289 288 288 288 289 289 290 289 287 288 286 286
269 269 268 267 267 269 270 271 273 273 272 274 278 283 285 286 286 287 287 288 291 292 291 292 292 290 288 289 291 291 289 288 287 286 286 286 286 285 286 286 286 285 285
267 267 266 266 266 266 266 268 271 270 270 272 276 282 284 286 286 286 286 289 290 291 291 292 292 287 293 291 291 291 291 290 289 286 285 285 285 284 284 284 284 285 285